VK4ZU-13 Weather Reports


Display with metric or nautical units.
time (UTC)temp
F
wind
direction
speed
MPH
gust
MPH
rain 1hr
in
rain 24hr
in
rain mn
in
humidity
%
barometer
mb
20260509013451 74 135 3.0 8.0 0.00 0.00 0.00 50 1022.9
20260509013423 74 12 3.0 8.0 0.00 0.00 0.00 51 1023.0
20260509013246 74 351 3.0 8.0 0.00 0.00 0.00 49 1022.9
20260509013134 74 74 3.0 8.0 0.00 0.00 0.00 49 1023.0
20260509013024 74 46 2.0 6.0 0.00 0.00 0.00 49 1023.0
20260509012913 74 92 2.0 6.0 0.00 0.00 0.00 50 1023.0
20260509012812 74 13 2.0 6.0 0.00 0.00 0.00 50 1022.9
20260509012723 74 0 1.0 5.0 0.00 0.00 0.00 53 1023.0
20260509012543 74 327 1.0 5.0 0.00 0.00 0.00 52 1023.0
20260509012437 74 96 1.0 5.0 0.00 0.00 0.00 50 1022.9
20260509012324 74 125 1.0 5.0 0.00 0.00 0.00 52 1023.0
20260509012213 73 44 2.0 5.0 0.00 0.00 0.00 53 1023.0
20260509012105 73 161 2.0 8.0 0.00 0.00 0.00 52 1023.0
20260509011953 72 161 3.0 8.0 0.00 0.00 0.00 57 1023.0
20260509011844 72 161 3.0 8.0 0.00 0.00 0.00 54 1023.0
20260509011742 72 105 3.0 8.0 0.00 0.00 0.00 53 1023.0
20260509011642 72 129 3.0 8.0 0.00 0.00 0.00 53 1023.0
20260509011539 73 129 3.0 8.0 0.00 0.00 0.00 52 1023.0
20260509011435 73 152 3.0 8.0 0.00 0.00 0.00 51 1022.9
20260509011336 73 99 2.0 8.0 0.00 0.00 0.00 51 1023.0
20260509011242 73 91 2.0 8.0 0.00 0.00 0.00 50 1022.9
20260509011218 74 92 2.0 7.0 0.00 0.00 0.00 50 1023.0
20260509011005 74 105 1.0 6.0 0.00 0.00 0.00 50 1022.9
20260509010858 74 211 1.0 4.0 0.00 0.00 0.00 52 1022.9
20260509010745 74 61 1.0 4.0 0.00 0.00 0.00 50 1023.0
20260509010634 74 158 1.0 4.0 0.00 0.00 0.00 52 1023.1
20260509010525 74 30 2.0 4.0 0.00 0.00 0.00 51 1023.1
20260509010420 75 325 2.0 4.0 0.00 0.00 0.00 50 1023.1
20260509010320 75 123 1.0 4.0 0.00 0.00 0.00 50 1023.2
20260509010219 75 82 1.0 4.0 0.00 0.00 0.00 52 1023.1
20260509010120 75 202 2.0 4.0 0.00 0.00 0.00 57 1023.2
20260509010017 74 207 2.0 5.0 0.00 0.00 0.00 50 1023.2
20260509005915 75 5 2.0 5.0 0.00 0.00 0.00 49 1023.1
20260509005814 75 153 2.0 5.0 0.00 0.00 0.00 49 1023.3
20260509005704 75 115 2.0 5.0 0.00 0.00 0.00 49 1023.2
20260509005600 75 117 2.0 6.0 0.00 0.00 0.00 53 1023.2
20260509005458 75 15 2.0 6.0 0.00 0.00 0.00 52 1023.2
20260509005358 75 214 2.0 6.0 0.00 0.00 0.00 53 1023.1
20260509005300 75 126 2.0 6.0 0.00 0.00 0.00 52 1023.2
20260509005151 74 141 2.0 6.0 0.00 0.00 0.00 54 1023.1
20260509005039 74 69 2.0 6.0 0.00 0.00 0.00 53 1023.2
20260509004930 74 84 2.0 6.0 0.00 0.00 0.00 51 1023.1
20260509004825 74 22 2.0 6.0 0.00 0.00 0.00 51 1023.1
20260509004718 74 14 2.0 6.0 0.00 0.00 0.00 52 1023.1
20260509004618 75 123 1.0 6.0 0.00 0.00 0.00 59 1023.0
20260509004508 74 110 1.0 6.0 0.00 0.00 0.00 55 1023.1
20260509004358 74 213 1.0 6.0 0.00 0.00 0.00 53 1023.1
20260509004248 74 177 1.0 6.0 0.00 0.00 0.00 50 1023.1
20260509004140 74 205 1.0 6.0 0.00 0.00 0.00 54 1023.0
20260509004033 74 194 2.0 5.0 0.00 0.00 0.00 54 1023.1
20260509003918 74 189 2.0 7.0 0.00 0.00 0.00 53 1023.1
20260509003813 74 171 2.0 9.0 0.00 0.00 0.00 56 1023.1
20260509003711 74 119 2.0 9.0 0.00 0.00 0.00 55 1023.0
20260509003612 74 146 2.0 9.0 0.00 0.00 0.00 54 1023.0
20260509003501 73 283 2.0 9.0 0.00 0.00 0.00 51 1023.1
20260509003351 74 267 2.0 9.0 0.00 0.00 0.00 50 1023.1
20260509003245 74 158 2.0 9.0 0.00 0.00 0.00 53 1023.0
20260509003138 74 208 2.0 9.0 0.00 0.00 0.00 52 1023.1
20260509003040 73 205 2.0 9.0 0.00 0.00 0.00 53 1023.1
20260509002930 73 185 2.0 9.0 0.00 0.00 0.00 53 1023.0
20260509002823 73 223 2.0 6.0 0.00 0.00 0.00 54 1023.2
20260509002723 73 167 1.0 6.0 0.00 0.00 0.00 54 1023.2
20260509002624 73 200 1.0 4.0 0.00 0.00 0.00 56 1023.3
20260509002517 72 78 1.0 4.0 0.00 0.00 0.00 53 1023.3
20260509002416 72 126 1.0 4.0 0.00 0.00 0.00 54 1023.3
20260509002318 72 263 1.0 3.0 0.00 0.00 0.00 54 1023.2
20260509002208 72 277 1.0 3.0 0.00 0.00 0.00 54 1023.3
20260509002100 72 265 1.0 2.0 0.00 0.00 0.00 55 1023.2
20260509001948 71 236 1.0 4.0 0.00 0.00 0.00 55 1023.3
20260509001846 71 241 1.0 4.0 0.00 0.00 0.00 53 1023.2
20260509001743 71 196 2.0 5.0 0.00 0.00 0.00 54 1023.3
20260509001641 72 219 2.0 5.0 0.00 0.00 0.00 54 1023.3
20260509001539 71 170 2.0 5.0 0.00 0.00 0.00 55 1023.2
20260509001438 71 229 3.0 8.0 0.00 0.00 0.00 55 1023.2
20260509001330 71 283 3.0 8.0 0.00 0.00 0.00 56 1023.2
20260509001231 71 283 3.0 8.0 0.00 0.00 0.00 55 1023.2
20260509001132 71 227 3.0 8.0 0.00 0.00 0.00 53 1023.2
20260509000912 71 257 3.0 8.0 0.00 0.00 0.00 57 1023.1
20260509000809 71 226 3.0 8.0 0.00 0.00 0.00 56 1023.1
20260509000705 71 267 3.0 8.0 0.00 0.00 0.00 55 1023.2
20260509000606 71 252 3.0 8.0 0.00 0.00 0.00 57 1023.1
20260509000456 71 285 3.0 6.0 0.00 0.00 0.00 57 1023.3
20260509000347 71 263 3.0 6.0 0.00 0.00 0.00 56 1023.1
20260509000237 71 256 3.0 6.0 0.00 0.00 0.00 54 1023.1
20260509000128 71 268 2.0 6.0 0.00 0.00 0.00 56 1023.2
20260509000022 72 261 2.0 6.0 0.00 0.00 0.00 57 1023.2
20260508235925 71 283 2.0 6.0 0.00 0.00 0.00 55 1023.0
20260508235816 71 238 2.0 6.0 0.00 0.00 0.00 57 1023.0
20260508235718 71 232 2.0 6.0 0.00 0.00 0.00 57 1023.1
20260508235622 71 249 1.0 5.0 0.00 0.00 0.00 60 1023.1
20260508235400 70 265 1.0 4.0 0.00 0.00 0.00 57 1023.1
20260508235301 70 253 1.0 4.0 0.00 0.00 0.00 60 1023.1
20260508235202 70 324 1.0 3.0 0.00 0.00 0.00 62 1023.2
20260508235054 69 267 1.0 3.0 0.00 0.00 0.00 63 1023.2
20260508234942 69 32 1.0 3.0 0.00 0.00 0.00 65 1023.2
20260508234832 69 5 1.0 4.0 0.00 0.00 0.00 66 1023.1
20260508234724 68 348 1.0 4.0 0.00 0.00 0.00 67 1023.2
20260508234615 68 282 2.0 4.0 0.00 0.00 0.00 68 1023.2
20260508234509 68 282 2.0 4.0 0.00 0.00 0.00 67 1023.2
20260508234410 67 355 2.0 4.0 0.00 0.00 0.00 67 1023.1
20260508234300 67 30 2.0 4.0 0.00 0.00 0.00 70 1023.2
20260508234150 67 30 2.0 4.0 0.00 0.00 0.00 71 1023.2
20260508234042 67 30 2.0 4.0 0.00 0.00 0.00 68 1023.1
20260508233929 67 40 2.0 4.0 0.00 0.00 0.00 69 1023.1
20260508233819 67 5 1.0 3.0 0.00 0.00 0.00 73 1023.2
20260508233711 66 44 1.0 3.0 0.00 0.00 0.00 71 1023.1
20260508233604 66 44 1.0 3.0 0.00 0.00 0.00 71 1023.1
20260508233449 66 27 1.0 3.0 0.00 0.00 0.00 72 1023.1
20260508233340 65 33 1.0 3.0 0.00 0.00 0.00 71 1023.1
20260508233230 65 105 0.0 2.0 0.00 0.00 0.00 70 1023.1
20260508233120 65 105 0.0 2.0 0.00 0.00 0.00 71 1023.0
20260508233010 65 105 0.0 2.0 0.00 0.00 0.00 71 1023.2
20260508232907 65 105 0.0 2.0 0.00 0.00 0.00 72 1023.2
20260508232807 65 115 0.0 2.0 0.00 0.00 0.00 73 1023.0
20260508232703 64 115 0.0 2.0 0.00 0.00 0.00 73 1023.0
20260508232602 64 114 0.0 2.0 0.00 0.00 0.00 72 1023.0
20260508232352 64 309 0.0 2.0 0.00 0.00 0.00 72 1022.9
20260508232243 64 309 0.0 2.0 0.00 0.00 0.00 74 1022.9
20260508232131 63 309 0.0 2.0 0.00 0.00 0.00 75 1022.9
20260508232037 63 309 0.0 1.0 0.00 0.00 0.00 74 1022.9
20260508231914 63 309 0.0 2.0 0.00 0.00 0.00 73 1022.9
20260508231805 62 309 0.0 2.0 0.00 0.00 0.00 74 1022.9
20260508231701 62 309 0.0 2.0 0.00 0.00 0.00 75 1022.9
20260508231559 62 309 0.0 2.0 0.00 0.00 0.00 74 1023.1
20260508231504 62 309 1.0 2.0 0.00 0.00 0.00 73 1023.1
20260508231358 62 309 1.0 2.0 0.00 0.00 0.00 74 1023.1
20260508231259 62 309 1.0 2.0 0.00 0.00 0.00 74 1023.2
20260508231150 62 309 1.0 2.0 0.00 0.00 0.00 74 1023.0
20260508231040 62 309 1.0 2.0 0.00 0.00 0.00 76 1023.1
20260508230931 62 314 1.0 2.0 0.00 0.00 0.00 76 1023.1
20260508230822 62 314 1.0 2.0 0.00 0.00 0.00 77 1023.0
20260508230712 61 314 1.0 2.0 0.00 0.00 0.00 77 1023.1
20260508230604 61 43 1.0 2.0 0.00 0.00 0.00 77 1023.0
20260508230510 61 50 1.0 2.0 0.00 0.00 0.00 77 1023.0
20260508230350 61 33 1.0 2.0 0.00 0.00 0.00 77 1023.0
20260508230248 60 33 0.0 2.0 0.00 0.00 0.00 76 1022.9
20260508230150 60 33 0.0 2.0 0.00 0.00 0.00 76 1022.9
20260508230040 61 11 0.0 2.0 0.00 0.00 0.00 78 1022.8
20260508225938 60 11 0.0 2.0 0.00 0.00 0.00 78 1022.9
20260508225834 60 11 0.0 2.0 0.00 0.00 0.00 77 1022.8
20260508225732 60 11 0.0 1.0 0.00 0.00 0.00 77 1022.8
20260508225632 60 11 0.0 0.0 0.00 0.00 0.00 77 1022.8
20260508225531 60 11 0.0 0.0 0.00 0.00 0.00 77 1022.8
20260508225426 60 11 0.0 2.0 0.00 0.00 0.00 77 1022.9
20260508225316 60 11 0.0 2.0 0.00 0.00 0.00 78 1022.9
20260508225207 60 11 0.0 2.0 0.00 0.00 0.00 78 1022.8
20260508225059 60 11 0.0 2.0 0.00 0.00 0.00 78 1022.8
20260508224950 60 11 0.0 2.0 0.00 0.00 0.00 77 1022.9
20260508224840 60 11 0.0 2.0 0.00 0.00 0.00 79 1022.8
20260508224730 60 11 0.0 2.0 0.00 0.00 0.00 77 1022.9
20260508224622 60 11 0.0 2.0 0.00 0.00 0.00 77 1022.8
20260508224512 60 11 0.0 2.0 0.00 0.00 0.00 77 1022.8
20260508224408 60 22 0.0 2.0 0.00 0.00 0.00 77 1022.8
20260508224302 60 294 0.0 0.0 0.00 0.00 0.00 78 1022.8
20260508224201 60 294 0.0 0.0 0.00 0.00 0.00 77 1022.7
20260508224116 59 294 0.0 0.0 0.00 0.00 0.00 78 1022.7
20260508223942 59 294 0.0 0.0 0.00 0.00 0.00 78 1022.7
20260508223832 59 294 0.0 0.0 0.00 0.00 0.00 79 1022.8
20260508223722 58 294 0.0 0.0 0.00 0.00 0.00 79 1022.7
20260508223614 58 294 0.0 0.0 0.00 0.00 0.00 79 1022.7
20260508223506 58 294 0.0 0.0 0.00 0.00 0.00 80 1022.6
20260508223404 58 294 0.0 0.0 0.00 0.00 0.00 81 1022.6
20260508223301 57 294 0.0 0.0 0.00 0.00 0.00 80 1022.7
20260508223200 57 294 0.0 0.0 0.00 0.00 0.00 81 1022.7
20260508223102 57 294 0.0 0.0 0.00 0.00 0.00 81 1022.8
20260508222952 57 294 0.0 0.0 0.00 0.00 0.00 81 1022.8
20260508222848 57 294 0.0 0.0 0.00 0.00 0.00 81 1022.8
20260508222744 57 294 0.0 0.0 0.00 0.00 0.00 81 1022.9
20260508222642 56 294 0.0 0.0 0.00 0.00 0.00 82 1022.8
20260508222532 56 294 0.0 0.0 0.00 0.00 0.00 82 1022.9
20260508222422 56 294 0.0 0.0 0.00 0.00 0.00 83 1023.0
20260508222318 56 294 0.0 0.0 0.00 0.00 0.00 85 1022.9
20260508222205 55 294 0.0 0.0 0.00 0.00 0.00 84 1022.8
20260508222100 55 294 0.0 0.0 0.00 0.00 0.00 84 1022.8
20260508221959 55 294 0.0 0.0 0.00 0.00 0.00 83 1022.9
20260508221901 55 294 0.0 0.0 0.00 0.00 0.00 84 1022.7
20260508221759 55 294 0.0 0.0 0.00 0.00 0.00 84 1022.8
20260508221656 54 294 0.0 0.0 0.00 0.00 0.00 84 1022.7
20260508221558 54 294 0.0 0.0 0.00 0.00 0.00 85 1022.8
20260508221458 54 294 0.0 1.0 0.00 0.00 0.00 85 1022.8
20260508221356 54 294 0.0 1.0 0.00 0.00 0.00 85 1022.8
20260508221254 54 294 0.0 1.0 0.00 0.00 0.00 87 1022.7
20260508221147 54 294 0.0 1.0 0.00 0.00 0.00 87 1022.7
20260508221044 53 294 0.0 1.0 0.00 0.00 0.00 87 1022.7
20260508220946 53 294 0.0 1.0 0.00 0.00 0.00 87 1022.7
20260508220841 53 294 0.0 1.0 0.00 0.00 0.00 87 1022.7
20260508220743 53 294 0.0 1.0 0.00 0.00 0.00 87 1022.7
20260508220639 53 294 0.0 1.0 0.00 0.00 0.00 87 1022.8
20260508220534 53 294 0.0 1.0 0.00 0.00 0.00 88 1022.7
20260508220430 53 294 0.0 1.0 0.00 0.00 0.00 88 1022.7
20260508220331 52 294 0.0 1.0 0.00 0.00 0.00 89 1022.7
20260508220223 52 294 0.0 0.0 0.00 0.00 0.00 89 1022.7
20260508220057 52 294 0.0 0.0 0.00 0.00 0.00 90 1022.6
20260508215957 52 294 0.0 0.0 0.00 0.00 0.00 90 1022.7
20260508215851 51 294 0.0 0.0 0.00 0.00 0.00 90 1022.6
20260508215752 51 294 0.0 0.0 0.00 0.00 0.00 89 1022.6
20260508215652 51 294 0.0 0.0 0.00 0.00 0.00 90 1022.5
20260508215550 51 294 0.0 0.0 0.00 0.00 0.00 90 1022.5
20260508215448 51 294 0.0 0.0 0.00 0.00 0.00 90 1022.5
20260508215340 51 294 0.0 0.0 0.00 0.00 0.00 90 1022.5
20260508215234 51 294 0.0 0.0 0.00 0.00 0.00 90 1022.5
20260508215121 51 294 0.0 0.0 0.00 0.00 0.00 90 1022.4
20260508215019 50 294 0.0 0.0 0.00 0.00 0.00 91 1022.4
20260508214917 50 294 0.0 0.0 0.00 0.00 0.00 90 1022.4
20260508214815 50 294 0.0 0.0 0.00 0.00 0.00 91 1022.4
20260508214713 50 294 0.0 0.0 0.00 0.00 0.00 91 1022.4
20260508214609 50 294 0.0 0.0 0.00 0.00 0.00 91 1022.4
20260508214514 50 294 0.0 0.0 0.00 0.00 0.00 91 1022.3
20260508214402 50 294 0.0 0.0 0.00 0.00 0.00 91 1022.3
20260508214256 50 294 0.0 0.0 0.00 0.00 0.00 91 1022.4
20260508214159 50 294 0.0 0.0 0.00 0.00 0.00 91 1022.3
20260508214056 50 294 0.0 0.0 0.00 0.00 0.00 91 1022.3
20260508213856 50 294 0.0 0.0 0.00 0.00 0.00 91 1022.2
20260508213756 50 294 0.0 0.0 0.00 0.00 0.00 91 1022.2
20260508213658 50 294 0.0 0.0 0.00 0.00 0.00 91 1022.3
20260508213553 50 294 0.0 0.0 0.00 0.00 0.00 91 1022.2
20260508213450 49 294 0.0 0.0 0.00 0.00 0.00 91 1022.2
20260508213349 49 294 0.0 0.0 0.00 0.00 0.00 91 1022.1
20260508213247 49 294 0.0 0.0 0.00 0.00 0.00 91 1022.2
20260508213143 49 294 0.0 0.0 0.00 0.00 0.00 91 1022.1
20260508213043 49 294 0.0 0.0 0.00 0.00 0.00 91 1022.1
20260508212934 49 294 0.0 0.0 0.00 0.00 0.00 91 1022.2
20260508212824 49 294 0.0 0.0 0.00 0.00 0.00 91 1022.1
20260508212719 49 294 0.0 0.0 0.00 0.00 0.00 91 1022.1
20260508212619 49 294 0.0 0.0 0.00 0.00 0.00 91 1022.1
20260508212518 49 294 0.0 0.0 0.00 0.00 0.00 91 1022.1
20260508212415 49 294 0.0 1.0 0.00 0.00 0.00 91 1022.0
20260508212313 49 294 0.0 1.0 0.00 0.00 0.00 91 1022.1
20260508212212 49 294 0.0 1.0 0.00 0.00 0.00 91 1022.1
20260508212107 49 294 0.0 1.0 0.00 0.00 0.00 91 1022.0
20260508212010 49 294 0.0 1.0 0.00 0.00 0.00 91 1021.9
20260508211858 49 294 0.0 1.0 0.00 0.00 0.00 91 1021.9
20260508211750 49 294 0.0 1.0 0.00 0.00 0.00 91 1022.0
20260508211639 49 294 0.0 1.0 0.00 0.00 0.00 91 1021.9
20260508211533 49 294 0.0 1.0 0.00 0.00 0.00 91 1021.9
20260508211423 49 294 0.0 1.0 0.00 0.00 0.00 91 1021.9
20260508211325 49 294 0.0 1.0 0.00 0.00 0.00 91 1021.9
20260508211223 48 294 0.0 1.0 0.00 0.00 0.00 91 1021.8
20260508211121 48 294 0.0 0.0 0.00 0.00 0.00 91 1021.9
20260508211055 48 294 0.0 0.0 0.00 0.00 0.00 91 1021.8
20260508210918 48 294 0.0 0.0 0.00 0.00 0.00 91 1021.8
20260508210809 48 294 0.0 0.0 0.00 0.00 0.00 91 1021.8
20260508210705 48 294 0.0 0.0 0.00 0.00 0.00 91 1021.9
20260508210605 48 294 0.0 0.0 0.00 0.00 0.00 91 1021.8
20260508210504 48 294 0.0 0.0 0.00 0.00 0.00 91 1021.8
20260508210359 47 294 0.0 0.0 0.00 0.00 0.00 91 1021.8
20260508210259 47 294 0.0 0.0 0.00 0.00 0.00 90 1021.8
20260508210156 47 294 0.0 0.0 0.00 0.00 0.00 89 1021.7
20260508210055 47 294 0.0 0.0 0.00 0.00 0.00 89 1021.8
20260508205953 47 294 0.0 0.0 0.00 0.00 0.00 89 1021.8
20260508205848 47 294 0.0 0.0 0.00 0.00 0.00 89 1021.7
20260508205748 47 294 0.0 0.0 0.00 0.00 0.00 89 1021.8
20260508205647 47 294 0.0 0.0 0.00 0.00 0.00 89 1021.7
20260508205545 47 294 0.0 0.0 0.00 0.00 0.00 89 1021.8
20260508205445 47 294 0.0 0.0 0.00 0.00 0.00 89 1021.7
20260508205342 47 294 0.0 0.0 0.00 0.00 0.00 89 1021.7
20260508205233 47 294 0.0 0.0 0.00 0.00 0.00 89 1021.8
20260508205131 47 294 0.0 0.0 0.00 0.00 0.00 89 1021.8
20260508205030 47 294 0.0 0.0 0.00 0.00 0.00 89 1021.8
20260508204918 47 294 0.0 0.0 0.00 0.00 0.00 89 1021.8
20260508204811 47 294 0.0 0.0 0.00 0.00 0.00 89 1021.8
20260508204659 47 294 0.0 0.0 0.00 0.00 0.00 89 1021.7
20260508204549 47 294 0.0 0.0 0.00 0.00 0.00 89 1021.7
20260508204444 47 294 0.0 0.0 0.00 0.00 0.00 89 1021.7
20260508204329 47 294 0.0 0.0 0.00 0.00 0.00 89 1021.7
20260508204219 47 294 0.0 0.0 0.00 0.00 0.00 89 1021.8
20260508204109 47 294 0.0 0.0 0.00 0.00 0.00 89 1021.7
20260508203959 47 294 0.0 1.0 0.00 0.00 0.00 89 1021.7
20260508203849 46 294 0.0 1.0 0.00 0.00 0.00 89 1021.7
20260508203746 47 294 0.0 1.0 0.00 0.00 0.00 89 1021.6
20260508203647 47 294 0.0 1.0 0.00 0.00 0.00 89 1021.7
20260508203537 46 294 0.0 1.0 0.00 0.00 0.00 89 1021.6
20260508203431 47 294 0.0 1.0 0.00 0.00 0.00 89 1021.5
20260508203317 47 294 0.0 1.0 0.00 0.00 0.00 89 1021.6
20260508203208 47 294 0.0 1.0 0.00 0.00 0.00 89 1021.6
20260508203057 47 294 0.0 1.0 0.00 0.00 0.00 89 1021.5
20260508202947 47 294 0.0 0.0 0.00 0.00 0.00 89 1021.5
20260508202837 47 294 0.0 0.0 0.00 0.00 0.00 89 1021.4
20260508202728 47 294 0.0 0.0 0.00 0.00 0.00 89 1021.4
20260508202507 47 294 0.0 0.0 0.00 0.00 0.00 89 1021.4
20260508202403 47 294 0.0 0.0 0.00 0.00 0.00 89 1021.3
20260508202253 47 294 0.0 0.0 0.00 0.00 0.00 89 1021.5
20260508202149 47 294 0.0 0.0 0.00 0.00 0.00 89 1021.4
20260508202051 47 294 0.0 0.0 0.00 0.00 0.00 89 1021.4
20260508201941 47 294 0.0 0.0 0.00 0.00 0.00 89 1021.4
20260508201835 47 294 0.0 0.0 0.00 0.00 0.00 89 1021.3
20260508201721 47 294 0.0 0.0 0.00 0.00 0.00 89 1021.4
20260508201612 47 294 0.0 0.0 0.00 0.00 0.00 89 1021.3
20260508201502 47 294 0.0 0.0 0.00 0.00 0.00 89 1021.3
20260508201357 47 294 0.0 0.0 0.00 0.00 0.00 89 1021.3
20260508201240 47 294 0.0 0.0 0.00 0.00 0.00 89 1021.3
20260508201131 47 294 0.0 1.0 0.00 0.00 0.00 89 1021.3
20260508201039 47 294 0.0 1.0 0.00 0.00 0.00 89 1021.2
20260508201016 47 294 0.0 1.0 0.00 0.00 0.00 89 1021.2
20260508200807 47 294 0.0 1.0 0.00 0.00 0.00 89 1021.1
20260508200651 47 294 0.0 1.0 0.00 0.00 0.00 89 1021.2
20260508200547 47 294 0.0 1.0 0.00 0.00 0.00 89 1021.2
20260508200449 47 294 0.0 1.0 0.00 0.00 0.00 89 1021.1
20260508200340 47 294 0.0 1.0 0.00 0.00 0.00 89 1021.1
20260508200228 47 294 0.0 1.0 0.00 0.00 0.00 89 1021.1
20260508200119 47 294 0.0 2.0 0.00 0.00 0.00 89 1021.1
20260508200010 47 294 0.0 2.0 0.00 0.00 0.00 89 1021.2
20260508195858 47 294 0.0 3.0 0.00 0.00 0.00 89 1021.1
20260508195759 47 294 1.0 3.0 0.00 0.00 0.00 89 1021.0
20260508195654 47 294 1.0 3.0 0.00 0.00 0.00 89 1021.2
20260508195553 47 294 1.0 3.0 0.00 0.00 0.00 89 1021.1
20260508195451 47 294 1.0 3.0 0.00 0.00 0.00 89 1021.1
20260508195348 47 294 1.0 3.0 0.00 0.00 0.00 89 1021.2
20260508195250 47 294 1.0 3.0 0.00 0.00 0.00 89 1021.0
20260508195142 47 294 1.0 3.0 0.00 0.00 0.00 89 1021.0
20260508195041 47 55 1.0 3.0 0.00 0.00 0.00 89 1020.9
20260508194942 47 190 1.0 2.0 0.00 0.00 0.00 89 1020.9
20260508194839 47 190 1.0 2.0 0.00 0.00 0.00 89 1020.9
20260508194746 47 190 0.0 2.0 0.00 0.00 0.00 89 1020.9
20260508194628 47 190 0.0 2.0 0.00 0.00 0.00 89 1020.8
20260508194518 47 190 0.0 2.0 0.00 0.00 0.00 89 1020.9
20260508194409 47 190 0.0 2.0 0.00 0.00 0.00 88 1020.7
20260508194259 47 190 0.0 2.0 0.00 0.00 0.00 88 1020.7
20260508194149 47 109 0.0 2.0 0.00 0.00 0.00 88 1020.7
20260508194039 47 182 0.0 0.0 0.00 0.00 0.00 88 1020.7
20260508193959 47 182 0.0 0.0 0.00 0.00 0.00 88 1020.7
20260508193819 47 182 0.0 0.0 0.00 0.00 0.00 88 1020.7
20260508193717 47 182 0.0 0.0 0.00 0.00 0.00 88 1020.7
20260508193614 47 182 0.0 1.0 0.00 0.00 0.00 88 1020.8
20260508193513 47 182 0.0 1.0 0.00 0.00 0.00 88 1020.8
20260508193409 47 182 0.0 1.0 0.00 0.00 0.00 88 1020.7
20260508193310 47 182 0.0 1.0 0.00 0.00 0.00 88 1020.8
20260508193159 47 182 0.0 1.0 0.00 0.00 0.00 88 1020.8
20260508193049 47 182 0.0 1.0 0.00 0.00 0.00 88 1020.7
20260508192940 47 182 0.0 1.0 0.00 0.00 0.00 88 1020.7
20260508192831 47 182 0.0 1.0 0.00 0.00 0.00 88 1020.7
20260508192722 47 182 0.0 1.0 0.00 0.00 0.00 88 1020.6
20260508192609 47 182 0.0 0.0 0.00 0.00 0.00 88 1020.6
20260508192458 47 182 0.0 0.0 0.00 0.00 0.00 88 1020.6
20260508192239 47 182 0.0 0.0 0.00 0.00 0.00 88 1020.7
20260508192129 47 182 0.0 0.0 0.00 0.00 0.00 88 1020.7
20260508192027 47 182 0.0 0.0 0.00 0.00 0.00 88 1020.7
20260508191923 47 182 0.0 0.0 0.00 0.00 0.00 88 1020.6
20260508191824 47 182 0.0 0.0 0.00 0.00 0.00 88 1020.6
20260508191716 47 182 0.0 0.0 0.00 0.00 0.00 88 1020.6
20260508191610 47 182 0.0 0.0 0.00 0.00 0.00 88 1020.5
20260508191511 47 182 0.0 0.0 0.00 0.00 0.00 88 1020.5
20260508191401 47 182 0.0 0.0 0.00 0.00 0.00 88 1020.6
20260508191258 47 182 0.0 0.0 0.00 0.00 0.00 88 1020.5
20260508191155 47 182 0.0 0.0 0.00 0.00 0.00 88 1020.5
20260508191055 47 182 0.0 0.0 0.00 0.00 0.00 88 1020.5
20260508190946 47 182 0.0 0.0 0.00 0.00 0.00 88 1020.5
20260508190835 47 182 0.0 0.0 0.00 0.00 0.00 88 1020.4
20260508190726 47 182 0.0 0.0 0.00 0.00 0.00 88 1020.6
20260508190619 47 182 0.0 0.0 0.00 0.00 0.00 88 1020.5
20260508190505 47 182 0.0 0.0 0.00 0.00 0.00 88 1020.6
20260508190355 47 182 0.0 0.0 0.00 0.00 0.00 88 1020.5
20260508190252 47 182 0.0 0.0 0.00 0.00 0.00 88 1020.5
20260508190153 47 182 0.0 0.0 0.00 0.00 0.00 88 1020.7
20260508190043 47 182 0.0 0.0 0.00 0.00 0.00 88 1020.7
20260508185933 47 182 0.0 0.0 0.00 0.00 0.00 88 1020.6
20260508185822 47 182 0.0 0.0 0.00 0.00 0.00 88 1020.6
20260508185714 47 182 0.0 0.0 0.00 0.00 0.00 88 1020.7
20260508185452 47 182 0.0 0.0 0.00 0.00 0.00 88 1020.6
20260508185247 47 182 0.0 0.0 0.00 0.00 0.00 88 1020.6
20260508185147 47 182 0.0 0.0 0.00 0.00 0.00 88 1020.7
20260508185041 47 182 0.0 0.0 0.00 0.00 0.00 88 1020.7
20260508184927 47 182 0.0 0.0 0.00 0.00 0.00 88 1020.6
20260508184817 47 182 0.0 0.0 0.00 0.00 0.00 88 1020.5
20260508184715 47 182 0.0 0.0 0.00 0.00 0.00 88 1020.5
20260508184615 47 182 0.0 0.0 0.00 0.00 0.00 88 1020.5
20260508184505 47 182 0.0 0.0 0.00 0.00 0.00 88 1020.6
20260508184356 47 182 0.0 0.0 0.00 0.00 0.00 88 1020.4
20260508184224 47 182 0.0 0.0 0.00 0.00 0.00 88 1020.6
20260508184125 47 182 0.0 0.0 0.00 0.00 0.00 88 1020.4
20260508184023 47 182 0.0 0.0 0.00 0.00 0.00 88 1020.5
20260508183930 47 182 0.0 0.0 0.00 0.00 0.00 88 1020.5
20260508183751 47 182 0.0 0.0 0.00 0.00 0.00 88 1020.5
20260508183642 46 182 0.0 0.0 0.00 0.00 0.00 88 1020.5
20260508183531 47 182 0.0 0.0 0.00 0.00 0.00 88 1020.6
20260508183422 46 182 0.0 0.0 0.00 0.00 0.00 88 1020.4
20260508183311 46 182 0.0 0.0 0.00 0.00 0.00 88 1020.4
20260508183206 46 182 0.0 0.0 0.00 0.00 0.00 88 1020.4
20260508183109 47 182 0.0 0.0 0.00 0.00 0.00 88 1020.4
20260508183002 46 182 0.0 0.0 0.00 0.00 0.00 88 1020.4
20260508182848 46 182 0.0 0.0 0.00 0.00 0.00 88 1020.3
20260508182739 46 182 0.0 0.0 0.00 0.00 0.00 88 1020.2
20260508182635 46 182 0.0 0.0 0.00 0.00 0.00 88 1020.4
20260508182533 46 182 0.0 0.0 0.00 0.00 0.00 88 1020.4
20260508182437 46 182 0.0 0.0 0.00 0.00 0.00 88 1020.4
20260508182332 46 182 0.0 1.0 0.00 0.00 0.00 88 1020.4
20260508182215 46 182 0.0 2.0 0.00 0.00 0.00 88 1020.4
20260508182102 46 182 0.0 2.0 0.00 0.00 0.00 87 1020.4
20260508181952 46 182 0.0 2.0 0.00 0.00 0.00 87 1020.5
20260508181843 46 182 0.0 2.0 0.00 0.00 0.00 87 1020.4
20260508181733 46 182 0.0 2.0 0.00 0.00 0.00 87 1020.4
20260508181628 46 182 0.0 2.0 0.00 0.00 0.00 87 1020.4
20260508181531 46 182 0.0 2.0 0.00 0.00 0.00 87 1020.4
20260508181424 46 182 0.0 2.0 0.00 0.00 0.00 87 1020.4
20260508181311 46 182 0.0 1.0 0.00 0.00 0.00 87 1020.4
20260508181202 46 182 0.0 0.0 0.00 0.00 0.00 87 1020.3
20260508181051 46 182 0.0 0.0 0.00 0.00 0.00 87 1020.3
20260508180941 46 182 0.0 0.0 0.00 0.00 0.00 87 1020.3
20260508180831 46 182 0.0 0.0 0.00 0.00 0.00 87 1020.3
20260508180721 46 182 0.0 0.0 0.00 0.00 0.00 87 1020.3
20260508180612 46 182 0.0 0.0 0.00 0.00 0.00 87 1020.4
20260508180501 46 182 0.0 0.0 0.00 0.00 0.00 87 1020.5
20260508180354 46 182 0.0 0.0 0.00 0.00 0.00 87 1020.3
20260508180242 46 182 0.0 0.0 0.00 0.00 0.00 87 1020.4
20260508180132 46 182 0.0 0.0 0.00 0.00 0.00 87 1020.3
20260508180031 46 182 0.0 0.0 0.00 0.00 0.00 87 1020.4
20260508175931 46 182 0.0 0.0 0.00 0.00 0.00 87 1020.4
20260508175824 46 182 0.0 0.0 0.00 0.00 0.00 87 1020.5
20260508175713 46 182 0.0 0.0 0.00 0.00 0.00 87 1020.6
20260508175606 46 182 0.0 0.0 0.00 0.00 0.00 87 1020.5
20260508175453 46 182 0.0 0.0 0.00 0.00 0.00 87 1020.6
20260508175346 46 182 0.0 0.0 0.00 0.00 0.00 87 1020.5
20260508175232 46 182 0.0 0.0 0.00 0.00 0.00 87 1020.5
20260508175123 46 182 0.0 0.0 0.00 0.00 0.00 87 1020.5
20260508175013 46 182 0.0 0.0 0.00 0.00 0.00 87 1020.6
20260508174905 46 182 0.0 0.0 0.00 0.00 0.00 87 1020.6
20260508174755 46 182 0.0 0.0 0.00 0.00 0.00 87 1020.4
20260508174652 46 182 0.0 0.0 0.00 0.00 0.00 87 1020.5
20260508174549 46 182 0.0 0.0 0.00 0.00 0.00 87 1020.4
20260508174450 46 182 0.0 0.0 0.00 0.00 0.00 87 1020.4
20260508174339 46 182 0.0 0.0 0.00 0.00 0.00 87 1020.4
20260508174227 46 182 0.0 0.0 0.00 0.00 0.00 87 1020.5
20260508174117 46 182 0.0 0.0 0.00 0.00 0.00 87 1020.5
20260508174008 46 182 0.0 0.0 0.00 0.00 0.00 87 1020.6
20260508173900 46 182 0.0 0.0 0.00 0.00 0.00 87 1020.5
20260508173641 46 182 0.0 0.0 0.00 0.00 0.00 87 1020.4
20260508173540 46 182 0.0 0.0 0.00 0.00 0.00 87 1020.4
20260508173436 46 182 0.0 0.0 0.00 0.00 0.00 87 1020.6
20260508173332 46 182 0.0 0.0 0.00 0.00 0.00 87 1020.5
20260508173231 46 182 0.0 0.0 0.00 0.00 0.00 87 1020.5
20260508173122 46 182 0.0 0.0 0.00 0.00 0.00 87 1020.4
20260508173013 46 182 0.0 0.0 0.00 0.00 0.00 87 1020.4
20260508172909 46 182 0.0 0.0 0.00 0.00 0.00 87 1020.4
20260508172814 46 182 0.0 0.0 0.00 0.00 0.00 87 1020.4
20260508172703 46 182 0.0 0.0 0.00 0.00 0.00 87 1020.3
20260508172556 46 182 0.0 0.0 0.00 0.00 0.00 87 1020.3
20260508172445 46 182 0.0 0.0 0.00 0.00 0.00 87 1020.3
20260508172338 46 182 0.0 0.0 0.00 0.00 0.00 86 1020.2
20260508172124 46 182 0.0 0.0 0.00 0.00 0.00 86 1020.1
20260508172016 46 182 0.0 0.0 0.00 0.00 0.00 86 1020.2
20260508171907 46 182 0.0 0.0 0.00 0.00 0.00 86 1020.2
20260508171801 46 182 0.0 0.0 0.00 0.00 0.00 86 1020.2
20260508171650 46 182 0.0 0.0 0.00 0.00 0.00 86 1020.0
20260508171542 46 182 0.0 0.0 0.00 0.00 0.00 86 1020.2
20260508171436 46 182 0.0 0.0 0.00 0.00 0.00 86 1020.0
20260508171337 46 182 0.0 0.0 0.00 0.00 0.00 86 1020.0
20260508171239 46 182 0.0 0.0 0.00 0.00 0.00 86 1020.0
20260508171127 46 182 0.0 0.0 0.00 0.00 0.00 86 1020.0
20260508171022 46 182 0.0 0.0 0.00 0.00 0.00 86 1020.0
20260508170914 46 182 0.0 0.0 0.00 0.00 0.00 86 1020.0
20260508170831 46 182 0.0 0.0 0.00 0.00 0.00 86 1020.1
20260508170657 46 182 0.0 0.0 0.00 0.00 0.00 86 1020.0
20260508170549 46 182 0.0 0.0 0.00 0.00 0.00 86 1020.1
20260508170438 46 182 0.0 0.0 0.00 0.00 0.00 86 1020.0
20260508170331 46 182 0.0 0.0 0.00 0.00 0.00 86 1020.0
20260508170224 46 182 0.0 0.0 0.00 0.00 0.00 86 1020.0
20260508170119 46 182 0.0 0.0 0.00 0.00 0.00 86 1020.0
20260508170017 46 182 0.0 0.0 0.00 0.00 0.00 86 1019.9
20260508165917 46 182 0.0 0.0 0.00 0.00 0.00 86 1019.9
20260508165815 46 182 0.0 0.0 0.00 0.00 0.00 86 1019.9
20260508165713 46 182 0.0 0.0 0.00 0.00 0.00 86 1019.9
20260508165606 46 182 0.0 0.0 0.00 0.00 0.00 86 1019.9
20260508165459 46 182 0.0 0.0 0.00 0.00 0.00 86 1019.9
20260508165354 46 182 0.0 0.0 0.00 0.00 0.00 86 1019.9
20260508165245 46 182 0.0 0.0 0.00 0.00 0.00 86 1019.9
20260508165138 46 182 0.0 0.0 0.00 0.00 0.00 86 1020.1
20260508165029 46 182 0.0 0.0 0.00 0.00 0.00 86 1019.9
20260508164921 46 182 0.0 0.0 0.00 0.00 0.00 86 1020.0
20260508164812 46 182 0.0 0.0 0.00 0.00 0.00 86 1020.0
20260508164717 46 182 0.0 0.0 0.00 0.00 0.00 86 1019.9
20260508164614 46 182 0.0 0.0 0.00 0.00 0.00 86 1020.0
20260508164513 46 182 0.0 0.0 0.00 0.00 0.00 86 1020.0
20260508164411 46 182 0.0 0.0 0.00 0.00 0.00 86 1020.0
20260508164311 46 182 0.0 0.0 0.00 0.00 0.00 86 1020.1
20260508164216 46 182 0.0 0.0 0.00 0.00 0.00 86 1020.1
20260508164109 46 182 0.0 0.0 0.00 0.00 0.00 86 1020.0
20260508164000 46 182 0.0 0.0 0.00 0.00 0.00 86 1019.9
20260508163850 46 182 0.0 0.0 0.00 0.00 0.00 86 1020.0
20260508163741 46 182 0.0 0.0 0.00 0.00 0.00 86 1020.0
20260508163632 46 182 0.0 0.0 0.00 0.00 0.00 86 1020.0
20260508163527 46 182 0.0 0.0 0.00 0.00 0.00 85 1020.1
20260508163412 46 182 0.0 0.0 0.00 0.00 0.00 86 1020.1
20260508163303 46 182 0.0 0.0 0.00 0.00 0.00 86 1020.1
20260508163156 46 182 0.0 0.0 0.00 0.00 0.00 85 1020.1
20260508163054 46 182 0.0 0.0 0.00 0.00 0.00 85 1020.0
20260508162952 46 182 0.0 0.0 0.00 0.00 0.00 85 1020.1
20260508162850 46 182 0.0 0.0 0.00 0.00 0.00 85 1020.0
20260508162741 46 182 0.0 0.0 0.00 0.00 0.00 85 1020.1
20260508162639 46 182 0.0 0.0 0.00 0.00 0.00 85 1020.0
20260508162539 46 182 0.0 0.0 0.00 0.00 0.00 85 1020.0
20260508162432 46 182 0.0 0.0 0.00 0.00 0.00 85 1020.1
20260508162321 46 182 0.0 0.0 0.00 0.00 0.00 85 1020.0
20260508162101 46 182 0.0 0.0 0.00 0.00 0.00 85 1020.0
20260508161957 46 182 0.0 0.0 0.00 0.00 0.00 85 1020.1
20260508161857 46 182 0.0 0.0 0.00 0.00 0.00 85 1020.0
20260508161754 46 182 0.0 0.0 0.00 0.00 0.00 85 1020.0
20260508161647 46 182 0.0 0.0 0.00 0.00 0.00 85 1020.0
20260508161533 46 182 0.0 0.0 0.00 0.00 0.00 85 1020.0
20260508161422 46 182 0.0 0.0 0.00 0.00 0.00 85 1020.1
20260508161312 46 182 0.0 0.0 0.00 0.00 0.00 85 1020.0
20260508161204 46 182 0.0 0.0 0.00 0.00 0.00 85 1020.0
20260508161104 46 182 0.0 0.0 0.00 0.00 0.00 85 1020.0
20260508161003 46 182 0.0 0.0 0.00 0.00 0.00 85 1020.0
20260508160902 46 182 0.0 0.0 0.00 0.00 0.00 85 1020.0
20260508160804 46 182 0.0 0.0 0.00 0.00 0.00 85 1020.1
20260508160659 46 182 0.0 0.0 0.00 0.00 0.00 85 1020.2
20260508160544 46 182 0.0 2.0 0.00 0.00 0.00 85 1020.1
20260508160435 46 182 0.0 2.0 0.00 0.00 0.00 85 1020.1
20260508160325 47 182 0.0 2.0 0.00 0.00 0.00 85 1020.2
20260508160214 46 182 0.0 2.0 0.00 0.00 0.00 85 1020.2
20260508160116 46 182 0.0 2.0 0.00 0.00 0.00 85 1020.2
20260508160011 46 182 0.0 2.0 0.00 0.00 0.00 85 1020.3
20260508155910 46 182 0.0 2.0 0.00 0.00 0.00 85 1020.2
20260508155805 46 182 0.0 2.0 0.00 0.00 0.00 85 1020.2
20260508155705 47 182 0.0 2.0 0.00 0.00 0.00 85 1020.3
20260508155604 47 182 0.0 2.0 0.00 0.00 0.00 85 1020.3
20260508155453 47 182 0.0 2.0 0.00 0.00 0.00 85 1020.2
20260508155353 47 182 0.0 0.0 0.00 0.00 0.00 85 1020.3
20260508155250 47 182 0.0 0.0 0.00 0.00 0.00 85 1020.2
20260508155046 47 182 0.0 0.0 0.00 0.00 0.00 85 1020.2
20260508154944 47 182 0.0 0.0 0.00 0.00 0.00 85 1020.2
20260508154840 47 182 0.0 0.0 0.00 0.00 0.00 85 1020.2
20260508154720 47 182 0.0 0.0 0.00 0.00 0.00 85 1020.2
20260508154613 47 182 0.0 0.0 0.00 0.00 0.00 85 1020.2
20260508154501 47 182 0.0 0.0 0.00 0.00 0.00 85 1020.3
20260508154355 47 182 0.0 0.0 0.00 0.00 0.00 85 1020.2
20260508154256 47 182 0.0 0.0 0.00 0.00 0.00 85 1020.2
20260508154154 47 182 0.0 0.0 0.00 0.00 0.00 85 1020.2
20260508154055 47 182 0.0 0.0 0.00 0.00 0.00 85 1020.2
20260508153953 47 182 0.0 0.0 0.00 0.00 0.00 85 1020.1
20260508153850 47 182 0.0 0.0 0.00 0.00 0.00 85 1020.0
20260508153746 47 182 0.0 0.0 0.00 0.00 0.00 84 1020.0
20260508153540 47 182 0.0 0.0 0.00 0.00 0.00 84 1019.9
20260508153428 47 182 0.0 0.0 0.00 0.00 0.00 84 1020.0
20260508153318 47 182 0.0 0.0 0.00 0.00 0.00 84 1020.0
20260508153219 47 182 0.0 0.0 0.00 0.00 0.00 84 1020.0
20260508153120 47 182 0.0 0.0 0.00 0.00 0.00 84 1019.9
20260508153011 47 182 0.0 0.0 0.00 0.00 0.00 85 1019.9
20260508152900 47 182 0.0 0.0 0.00 0.00 0.00 84 1020.0
20260508152639 47 182 0.0 0.0 0.00 0.00 0.00 84 1019.9
20260508152539 47 182 0.0 0.0 0.00 0.00 0.00 84 1019.9
20260508152437 47 182 0.0 0.0 0.00 0.00 0.00 84 1020.1
20260508152331 47 182 0.0 0.0 0.00 0.00 0.00 84 1020.0
20260508152225 47 182 0.0 0.0 0.00 0.00 0.00 84 1020.0
20260508152124 47 182 0.0 0.0 0.00 0.00 0.00 84 1020.0
20260508152026 47 182 0.0 0.0 0.00 0.00 0.00 84 1019.9
20260508151920 47 182 0.0 0.0 0.00 0.00 0.00 84 1019.9
20260508151816 47 182 0.0 0.0 0.00 0.00 0.00 84 1020.0
20260508151717 47 182 0.0 0.0 0.00 0.00 0.00 84 1020.0
20260508151606 47 182 0.0 0.0 0.00 0.00 0.00 84 1019.9
20260508151500 47 182 0.0 0.0 0.00 0.00 0.00 84 1019.9
20260508151346 47 182 0.0 0.0 0.00 0.00 0.00 84 1020.0
20260508151244 47 182 0.0 0.0 0.00 0.00 0.00 84 1020.0
20260508151140 47 182 0.0 0.0 0.00 0.00 0.00 84 1020.1
20260508151041 47 182 0.0 1.0 0.00 0.00 0.00 84 1020.0
20260508150938 47 182 0.0 1.0 0.00 0.00 0.00 84 1020.0
20260508150838 47 182 0.0 1.0 0.00 0.00 0.00 84 1020.2
20260508150734 47 182 0.0 1.0 0.00 0.00 0.00 84 1020.1
20260508150617 47 182 0.0 1.0 0.00 0.00 0.00 84 1020.0
20260508150508 47 182 0.0 1.0 0.00 0.00 0.00 84 1020.2
20260508150403 47 182 0.0 1.0 0.00 0.00 0.00 84 1020.1
20260508150247 47 182 0.0 1.0 0.00 0.00 0.00 84 1020.1
20260508150138 47 182 0.0 1.0 0.00 0.00 0.00 84 1020.0
20260508150029 47 182 0.0 0.0 0.00 0.00 0.00 84 1020.0
20260508145917 47 182 0.0 0.0 0.00 0.00 0.00 84 1020.0
20260508145811 47 182 0.0 0.0 0.00 0.00 0.00 84 1020.1
20260508145702 47 182 0.0 0.0 0.00 0.00 0.00 84 1020.0
20260508145552 47 182 0.0 0.0 0.00 0.00 0.00 84 1020.1
20260508145441 47 182 0.0 0.0 0.00 0.00 0.00 84 1020.1
20260508145349 47 182 0.0 0.0 0.00 0.00 0.00 84 1020.1
20260508145240 47 182 0.0 0.0 0.00 0.00 0.00 84 1020.0
20260508145028 47 182 0.0 0.0 0.00 0.00 0.00 83 1020.0
20260508144926 47 182 0.0 0.0 0.00 0.00 0.00 83 1020.0
20260508144832 47 182 0.0 0.0 0.00 0.00 0.00 83 1020.0
20260508144722 47 182 0.0 0.0 0.00 0.00 0.00 83 1020.0
20260508144618 47 182 0.0 0.0 0.00 0.00 0.00 83 1020.0
20260508144519 47 182 0.0 0.0 0.00 0.00 0.00 83 1020.2
20260508144408 47 182 0.0 0.0 0.00 0.00 0.00 83 1019.9
20260508144316 47 182 0.0 0.0 0.00 0.00 0.00 83 1020.0
20260508144152 47 182 0.0 0.0 0.00 0.00 0.00 83 1020.1
20260508144059 47 182 0.0 0.0 0.00 0.00 0.00 83 1020.0
20260508143953 47 182 0.0 0.0 0.00 0.00 0.00 83 1020.0
20260508143842 47 182 0.0 0.0 0.00 0.00 0.00 83 1020.0
20260508143748 47 182 0.0 0.0 0.00 0.00 0.00 83 1020.0
20260508143716 47 182 0.0 0.0 0.00 0.00 0.00 83 1020.0
20260508143502 47 182 0.0 0.0 0.00 0.00 0.00 83 1020.1
20260508143352 47 182 0.0 0.0 0.00 0.00 0.00 83 1020.0
20260508143246 47 182 0.0 0.0 0.00 0.00 0.00 83 1020.0
20260508143132 47 182 0.0 0.0 0.00 0.00 0.00 83 1019.9
20260508143021 47 182 0.0 1.0 0.00 0.00 0.00 83 1019.9
20260508142914 47 182 0.0 1.0 0.00 0.00 0.00 83 1020.0
20260508142802 47 182 0.0 1.0 0.00 0.00 0.00 83 1019.9
20260508142651 48 182 0.0 1.0 0.00 0.00 0.00 83 1020.0
20260508142542 48 182 0.0 1.0 0.00 0.00 0.00 83 1020.0
20260508142432 48 182 0.0 1.0 0.00 0.00 0.00 83 1020.0
20260508142331 48 182 0.0 1.0 0.00 0.00 0.00 83 1020.0
20260508142227 48 182 0.0 1.0 0.00 0.00 0.00 83 1020.0
20260508142126 48 182 0.0 1.0 0.00 0.00 0.00 83 1020.1
20260508142026 48 182 0.0 1.0 0.00 0.00 0.00 82 1020.0
20260508141924 48 182 0.0 0.0 0.00 0.00 0.00 82 1020.1
20260508141822 48 182 0.0 0.0 0.00 0.00 0.00 82 1020.1
20260508141725 48 182 0.0 0.0 0.00 0.00 0.00 82 1020.0
20260508141619 48 182 0.0 0.0 0.00 0.00 0.00 82 1020.2
20260508141515 48 182 0.0 0.0 0.00 0.00 0.00 82 1020.1
20260508141414 48 182 0.0 0.0 0.00 0.00 0.00 82 1020.1
20260508141312 48 182 0.0 0.0 0.00 0.00 0.00 82 1020.1
20260508141211 48 182 0.0 0.0 0.00 0.00 0.00 82 1020.1
20260508141106 48 182 0.0 0.0 0.00 0.00 0.00 82 1020.1
20260508141005 48 182 0.0 0.0 0.00 0.00 0.00 82 1020.1
20260508140858 48 182 0.0 0.0 0.00 0.00 0.00 81 1020.2
20260508140746 48 182 0.0 0.0 0.00 0.00 0.00 81 1020.1
20260508140644 48 182 0.0 0.0 0.00 0.00 0.00 81 1019.9
20260508140434 48 182 0.0 0.0 0.00 0.00 0.00 81 1020.1
20260508140324 48 182 0.0 0.0 0.00 0.00 0.00 81 1020.0
20260508140216 48 182 0.0 0.0 0.00 0.00 0.00 80 1020.1
20260508140114 48 182 0.0 0.0 0.00 0.00 0.00 80 1020.1
20260508135956 48 182 0.0 0.0 0.00 0.00 0.00 80 1020.1
20260508135855 48 182 0.0 0.0 0.00 0.00 0.00 81 1020.2
20260508135753 48 182 0.0 0.0 0.00 0.00 0.00 81 1020.0
20260508135650 48 182 0.0 0.0 0.00 0.00 0.00 81 1020.0
20260508135549 48 182 0.0 0.0 0.00 0.00 0.00 81 1020.0
20260508135447 48 182 0.0 0.0 0.00 0.00 0.00 81 1019.9
20260508135348 48 182 0.0 0.0 0.00 0.00 0.00 81 1020.0
20260508135242 48 182 0.0 0.0 0.00 0.00 0.00 80 1019.8
20260508135139 48 182 0.0 0.0 0.00 0.00 0.00 80 1019.9
20260508135037 48 182 0.0 0.0 0.00 0.00 0.00 81 1019.8
20260508134934 48 182 0.0 0.0 0.00 0.00 0.00 80 1019.8
20260508134833 48 182 0.0 0.0 0.00 0.00 0.00 80 1019.9
20260508134734 48 182 0.0 0.0 0.00 0.00 0.00 80 1019.8
20260508134627 48 182 0.0 0.0 0.00 0.00 0.00 80 1019.8
20260508134527 48 182 0.0 0.0 0.00 0.00 0.00 80 1019.7
20260508134423 48 182 0.0 0.0 0.00 0.00 0.00 80 1019.7
20260508134326 49 182 0.0 0.0 0.00 0.00 0.00 80 1019.7
20260508134222 49 182 0.0 0.0 0.00 0.00 0.00 80 1019.7
20260508134119 49 182 0.0 0.0 0.00 0.00 0.00 80 1019.7
20260508134021 49 182 0.0 0.0 0.00 0.00 0.00 80 1019.7
20260508133910 49 182 0.0 0.0 0.00 0.00 0.00 80 1019.7
20260508133803 49 182 0.0 0.0 0.00 0.00 0.00 80 1019.6
20260508133656 49 182 0.0 0.0 0.00 0.00 0.00 80 1019.6
20260508133548 49 182 0.0 0.0 0.00 0.00 0.00 80 1019.8
20260508133445 49 182 0.0 0.0 0.00 0.00 0.00 80 1019.7
20260508133347 49 182 0.0 0.0 0.00 0.00 0.00 79 1019.7
20260508133237 49 182 0.0 0.0 0.00 0.00 0.00 79 1019.7
20260508133128 49 182 0.0 0.0 0.00 0.00 0.00 79 1019.7
20260508133022 49 182 0.0 0.0 0.00 0.00 0.00 79 1019.7
20260508132920 49 182 0.0 0.0 0.00 0.00 0.00 79 1019.7
20260508132820 49 182 0.0 0.0 0.00 0.00 0.00 79 1019.6
20260508132711 49 182 0.0 0.0 0.00 0.00 0.00 79 1019.6
20260508132606 49 182 0.0 0.0 0.00 0.00 0.00 79 1019.7
20260508132458 49 182 0.0 0.0 0.00 0.00 0.00 79 1019.7
20260508132346 49 182 0.0 0.0 0.00 0.00 0.00 79 1019.6
20260508132243 49 182 0.0 0.0 0.00 0.00 0.00 79 1019.5
20260508132144 49 182 0.0 0.0 0.00 0.00 0.00 79 1019.6
20260508132040 49 182 0.0 0.0 0.00 0.00 0.00 79 1019.6
20260508131938 49 182 0.0 0.0 0.00 0.00 0.00 78 1019.6
20260508131838 49 182 0.0 0.0 0.00 0.00 0.00 78 1019.6
20260508131730 49 182 0.0 0.0 0.00 0.00 0.00 78 1019.6
20260508131618 49 182 0.0 0.0 0.00 0.00 0.00 78 1019.7
20260508131507 49 182 0.0 0.0 0.00 0.00 0.00 78 1019.7
20260508131357 49 182 0.0 0.0 0.00 0.00 0.00 78 1019.6
20260508131253 49 182 0.0 0.0 0.00 0.00 0.00 77 1019.6
20260508131154 49 182 0.0 0.0 0.00 0.00 0.00 77 1019.5
20260508131053 49 182 0.0 0.0 0.00 0.00 0.00 78 1019.5
20260508130954 49 182 0.0 0.0 0.00 0.00 0.00 77 1019.5
20260508130842 49 182 0.0 0.0 0.00 0.00 0.00 78 1019.6
20260508130732 49 182 0.0 0.0 0.00 0.00 0.00 78 1019.6
20260508130622 49 182 0.0 0.0 0.00 0.00 0.00 78 1019.6
20260508130512 49 182 0.0 0.0 0.00 0.00 0.00 78 1019.5
20260508130410 49 182 0.0 0.0 0.00 0.00 0.00 78 1019.5
20260508130310 49 182 0.0 0.0 0.00 0.00 0.00 78 1019.6
20260508130221 49 182 0.0 0.0 0.00 0.00 0.00 77 1019.6
20260508130116 49 182 0.0 1.0 0.00 0.00 0.00 78 1019.6
20260508130007 49 182 0.0 2.0 0.00 0.00 0.00 77 1019.6
20260508125901 49 182 0.0 2.0 0.00 0.00 0.00 78 1019.5
20260508125757 49 182 0.0 2.0 0.00 0.00 0.00 78 1019.6
20260508125659 49 182 0.0 2.0 0.00 0.00 0.00 78 1019.6
20260508125548 50 182 0.0 2.0 0.00 0.00 0.00 77 1019.6
20260508125437 50 182 0.0 2.0 0.00 0.00 0.00 77 1019.6
20260508125330 50 182 0.0 2.0 0.00 0.00 0.00 77 1019.6
20260508125217 50 182 0.0 2.0 0.00 0.00 0.00 77 1019.7
20260508125109 50 182 0.0 2.0 0.00 0.00 0.00 77 1019.5
20260508124958 50 182 0.0 2.0 0.00 0.00 0.00 77 1019.6
20260508124857 50 182 0.0 2.0 0.00 0.00 0.00 77 1019.5
20260508124756 50 182 0.0 1.0 0.00 0.00 0.00 77 1019.6
20260508124648 50 182 0.0 1.0 0.00 0.00 0.00 77 1019.6
20260508124537 50 182 0.0 1.0 0.00 0.00 0.00 77 1019.6
20260508124427 50 182 0.0 1.0 0.00 0.00 0.00 77 1019.6
20260508124319 50 182 0.0 2.0 0.00 0.00 0.00 76 1019.6
20260508124206 50 182 0.0 2.0 0.00 0.00 0.00 76 1019.6
20260508124057 50 182 0.0 2.0 0.00 0.00 0.00 76 1019.5
20260508123945 50 182 0.0 2.0 0.00 0.00 0.00 76 1019.6
20260508123835 50 182 0.0 2.0 0.00 0.00 0.00 76 1019.6
20260508123725 50 182 0.0 2.0 0.00 0.00 0.00 76 1019.5
20260508123617 50 182 0.0 2.0 0.00 0.00 0.00 75 1019.5
20260508123506 50 182 0.0 2.0 0.00 0.00 0.00 75 1019.6
20260508123356 50 182 0.0 2.0 0.00 0.00 0.00 75 1019.5
20260508123256 50 182 0.0 1.0 0.00 0.00 0.00 74 1019.5
20260508123154 50 182 0.0 0.0 0.00 0.00 0.00 74 1019.6
20260508123046 50 182 0.0 0.0 0.00 0.00 0.00 73 1019.5
20260508122934 50 182 0.0 0.0 0.00 0.00 0.00 72 1019.7
20260508122824 50 182 0.0 0.0 0.00 0.00 0.00 72 1019.6
20260508122714 51 182 0.0 0.0 0.00 0.00 0.00 72 1019.6
20260508122605 51 182 0.0 0.0 0.00 0.00 0.00 72 1019.6
20260508122453 51 182 0.0 0.0 0.00 0.00 0.00 73 1019.5
20260508122343 51 182 0.0 0.0 0.00 0.00 0.00 73 1019.5
20260508122249 51 182 0.0 0.0 0.00 0.00 0.00 73 1019.5
20260508122123 51 182 0.0 0.0 0.00 0.00 0.00 73 1019.6
20260508121912 51 182 0.0 0.0 0.00 0.00 0.00 73 1019.6
20260508121808 51 182 0.0 0.0 0.00 0.00 0.00 73 1019.6
20260508121714 51 182 0.0 0.0 0.00 0.00 0.00 73 1019.5
20260508121608 51 182 0.0 0.0 0.00 0.00 0.00 73 1019.5
20260508121506 51 182 0.0 0.0 0.00 0.00 0.00 73 1019.5
20260508121356 51 182 0.0 0.0 0.00 0.00 0.00 73 1019.5
20260508121245 51 182 0.0 0.0 0.00 0.00 0.00 73 1019.5
20260508121135 51 182 0.0 0.0 0.00 0.00 0.00 73 1019.5
20260508121031 51 182 0.0 0.0 0.00 0.00 0.00 73 1019.5
20260508120916 51 182 0.0 0.0 0.00 0.00 0.00 73 1019.6
20260508120806 51 182 0.0 0.0 0.00 0.00 0.00 73 1019.6
20260508120703 51 182 0.0 0.0 0.00 0.00 0.00 73 1019.6
20260508120600 51 182 0.0 0.0 0.00 0.00 0.00 73 1019.6
20260508120349 51 182 0.0 0.0 0.00 0.00 0.00 73 1019.5
20260508120241 51 182 0.0 0.0 0.00 0.00 0.00 73 1019.6
20260508120139 51 182 0.0 0.0 0.00 0.00 0.00 73 1019.6
20260508120037 51 182 0.0 0.0 0.00 0.00 0.00 73 1019.6
20260508115928 51 182 0.0 0.0 0.00 0.00 0.00 73 1019.7
20260508115817 51 182 0.0 0.0 0.00 0.00 0.00 72 1019.7
20260508115708 51 182 0.0 0.0 0.00 0.00 0.00 72 1019.7
20260508115602 51 182 0.0 0.0 0.00 0.00 0.00 73 1019.7
20260508115456 51 182 0.0 0.0 0.00 0.00 0.00 73 1019.7
20260508115354 51 182 0.0 0.0 0.00 0.00 0.00 73 1019.7
20260508115251 51 182 0.0 0.0 0.00 0.00 0.00 72 1019.7
20260508115141 51 182 0.0 0.0 0.00 0.00 0.00 72 1019.7
20260508115032 51 182 0.0 0.0 0.00 0.00 0.00 71 1019.8
20260508114921 52 182 0.0 0.0 0.00 0.00 0.00 71 1019.8
20260508114811 52 182 0.0 0.0 0.00 0.00 0.00 72 1019.8
20260508114702 52 182 0.0 0.0 0.00 0.00 0.00 72 1019.8
20260508114602 52 182 0.0 0.0 0.00 0.00 0.00 72 1019.8
20260508114459 52 182 0.0 0.0 0.00 0.00 0.00 72 1019.7
20260508114357 52 182 0.0 0.0 0.00 0.00 0.00 72 1019.7
20260508114256 52 182 0.0 0.0 0.00 0.00 0.00 72 1019.8
20260508114154 52 182 0.0 0.0 0.00 0.00 0.00 72 1019.7
20260508114053 52 182 0.0 0.0 0.00 0.00 0.00 72 1019.8
20260508113949 52 182 0.0 0.0 0.00 0.00 0.00 72 1019.9
20260508113849 52 182 0.0 0.0 0.00 0.00 0.00 72 1019.7
20260508113737 52 182 0.0 0.0 0.00 0.00 0.00 72 1019.8
20260508113627 52 182 0.0 0.0 0.00 0.00 0.00 72 1019.7
20260508113519 52 182 0.0 0.0 0.00 0.00 0.00 72 1019.7
20260508113408 52 182 0.0 0.0 0.00 0.00 0.00 72 1019.7
20260508113308 52 182 0.0 0.0 0.00 0.00 0.00 72 1019.7
20260508113147 52 182 0.0 0.0 0.00 0.00 0.00 72 1019.7
20260508113047 52 182 0.0 0.0 0.00 0.00 0.00 72 1019.7
20260508112946 52 182 0.0 0.0 0.00 0.00 0.00 72 1019.7
20260508112836 52 182 0.0 0.0 0.00 0.00 0.00 72 1019.6
20260508112727 52 182 0.0 0.0 0.00 0.00 0.00 72 1019.6
20260508112615 52 182 0.0 0.0 0.00 0.00 0.00 72 1019.7
20260508112507 52 182 0.0 0.0 0.00 0.00 0.00 71 1019.7
20260508112357 52 182 0.0 0.0 0.00 0.00 0.00 72 1019.7
20260508112248 52 182 0.0 0.0 0.00 0.00 0.00 71 1019.6
20260508112138 52 182 0.0 0.0 0.00 0.00 0.00 72 1019.6
20260508111832 52 182 0.0 0.0 0.00 0.00 0.00 72 1019.6
20260508111724 52 182 0.0 0.0 0.00 0.00 0.00 72 1019.6
20260508111624 52 182 0.0 0.0 0.00 0.00 0.00 72 1019.6
20260508111527 52 182 0.0 0.0 0.00 0.00 0.00 71 1019.6
20260508111413 52 182 0.0 0.0 0.00 0.00 0.00 72 1019.6
20260508111311 52 182 0.0 0.0 0.00 0.00 0.00 72 1019.6
20260508111211 52 182 0.0 0.0 0.00 0.00 0.00 72 1019.5
20260508111101 52 182 0.0 0.0 0.00 0.00 0.00 72 1019.4
20260508110949 52 182 0.0 0.0 0.00 0.00 0.00 72 1019.4
20260508110841 52 182 0.0 0.0 0.00 0.00 0.00 72 1019.5
20260508110729 52 182 0.0 0.0 0.00 0.00 0.00 71 1019.4
20260508110627 52 182 0.0 0.0 0.00 0.00 0.00 71 1019.4
20260508110557 52 182 0.0 0.0 0.00 0.00 0.00 71 1019.5
20260508110530 52 182 0.0 0.0 0.00 0.00 0.00 71 1019.3
20260508110314 52 182 0.0 0.0 0.00 0.00 0.00 71 1019.4
20260508110203 52 182 0.0 0.0 0.00 0.00 0.00 71 1019.4
20260508110053 52 182 0.0 0.0 0.00 0.00 0.00 70 1019.4
20260508105953 52 182 0.0 0.0 0.00 0.00 0.00 70 1019.4
20260508105852 52 182 0.0 0.0 0.00 0.00 0.00 70 1019.5
20260508105741 52 182 0.0 0.0 0.00 0.00 0.00 70 1019.4
20260508105638 52 182 0.0 0.0 0.00 0.00 0.00 70 1019.4
20260508105536 52 182 0.0 0.0 0.00 0.00 0.00 70 1019.4
20260508105441 52 182 0.0 0.0 0.00 0.00 0.00 70 1019.4
20260508105326 52 182 0.0 1.0 0.00 0.00 0.00 69 1019.4
20260508105106 52 182 0.0 2.0 0.00 0.00 0.00 69 1019.4
20260508104958 52 182 0.0 2.0 0.00 0.00 0.00 69 1019.4
20260508104845 52 182 0.0 2.0 0.00 0.00 0.00 69 1019.4
20260508104736 52 182 0.0 2.0 0.00 0.00 0.00 69 1019.4
20260508104626 52 182 0.0 2.0 0.00 0.00 0.00 69 1019.4
20260508104516 52 182 0.0 2.0 0.00 0.00 0.00 69 1019.4
20260508104416 52 182 0.0 2.0 0.00 0.00 0.00 69 1019.4
20260508104312 52 182 0.0 2.0 0.00 0.00 0.00 69 1019.4
20260508104202 52 182 0.0 2.0 0.00 0.00 0.00 69 1019.5
20260508104052 52 182 0.0 2.0 0.00 0.00 0.00 69 1019.5
20260508103945 52 182 0.0 2.0 0.00 0.00 0.00 69 1019.5
20260508103833 52 182 0.0 2.0 0.00 0.00 0.00 69 1019.4
20260508103725 52 182 0.0 2.0 0.00 0.00 0.00 69 1019.5
20260508103611 52 182 0.0 1.0 0.00 0.00 0.00 69 1019.5
20260508103502 52 182 0.0 2.0 0.00 0.00 0.00 69 1019.4
20260508103357 52 182 0.0 2.0 0.00 0.00 0.00 69 1019.5
20260508103242 53 182 1.0 2.0 0.00 0.00 0.00 69 1019.4
20260508103132 53 182 1.0 2.0 0.00 0.00 0.00 69 1019.4
20260508103021 53 182 1.0 2.0 0.00 0.00 0.00 69 1019.5
20260508102913 53 182 1.0 2.0 0.00 0.00 0.00 69 1019.5
20260508102813 53 182 1.0 2.0 0.00 0.00 0.00 69 1019.3
20260508102712 53 182 1.0 2.0 0.00 0.00 0.00 69 1019.3
20260508102601 53 182 0.0 2.0 0.00 0.00 0.00 69 1019.3
20260508102451 53 182 0.0 2.0 0.00 0.00 0.00 69 1019.3
20260508102346 53 182 0.0 2.0 0.00 0.00 0.00 69 1019.3
20260508102232 53 182 0.0 0.0 0.00 0.00 0.00 69 1019.2
20260508102125 53 182 0.0 0.0 0.00 0.00 0.00 69 1019.2
20260508102012 53 182 0.0 0.0 0.00 0.00 0.00 69 1019.1
20260508101910 53 182 0.0 1.0 0.00 0.00 0.00 69 1019.1
20260508101755 53 182 0.0 1.0 0.00 0.00 0.00 70 1019.2
20260508101643 53 182 0.0 2.0 0.00 0.00 0.00 70 1019.3
20260508101532 53 182 0.0 2.0 0.00 0.00 0.00 70 1019.3
20260508101430 53 182 0.0 2.0 0.00 0.00 0.00 70 1019.2
20260508101332 53 182 0.0 2.0 0.00 0.00 0.00 70 1019.3
20260508101227 53 182 0.0 2.0 0.00 0.00 0.00 70 1019.3
20260508101124 53 182 0.0 2.0 0.00 0.00 0.00 70 1019.3
20260508101024 53 182 0.0 2.0 0.00 0.00 0.00 70 1019.2
20260508100916 53 182 0.0 2.0 0.00 0.00 0.00 69 1019.2
20260508100807 53 182 0.0 2.0 0.00 0.00 0.00 69 1019.2
20260508100655 53 182 0.0 1.0 0.00 0.00 0.00 69 1019.1
20260508100544 53 182 0.0 2.0 0.00 0.00 0.00 69 1019.2
20260508100434 53 182 0.0 2.0 0.00 0.00 0.00 69 1019.2
20260508100326 54 182 0.0 2.0 0.00 0.00 0.00 68 1019.2
20260508100213 54 182 0.0 2.0 0.00 0.00 0.00 68 1019.1
20260508100104 54 182 0.0 2.0 0.00 0.00 0.00 68 1019.1
20260508095954 54 182 0.0 2.0 0.00 0.00 0.00 68 1019.1
20260508095844 54 182 0.0 2.0 0.00 0.00 0.00 68 1019.0
20260508095739 54 182 0.0 2.0 0.00 0.00 0.00 69 1019.1
20260508095634 54 182 0.0 2.0 0.00 0.00 0.00 69 1019.1
20260508095533 54 182 0.0 2.0 0.00 0.00 0.00 69 1019.0
20260508095422 54 182 0.0 2.0 0.00 0.00 0.00 68 1019.0
20260508095314 54 182 0.0 2.0 0.00 0.00 0.00 68 1018.9
20260508095201 54 182 0.0 2.0 0.00 0.00 0.00 68 1018.9
20260508095051 54 182 0.0 2.0 0.00 0.00 0.00 68 1019.0
20260508094943 54 182 0.0 2.0 0.00 0.00 0.00 68 1018.9
20260508094832 54 182 0.0 2.0 0.00 0.00 0.00 68 1019.0
20260508094725 54 182 0.0 2.0 0.00 0.00 0.00 68 1018.9
20260508094612 54 182 0.0 2.0 0.00 0.00 0.00 68 1018.9
20260508094502 54 182 0.0 2.0 0.00 0.00 0.00 68 1018.9
20260508094352 54 182 0.0 2.0 0.00 0.00 0.00 68 1018.9
20260508094244 55 182 0.0 2.0 0.00 0.00 0.00 68 1018.9
20260508094132 55 214 0.0 2.0 0.00 0.00 0.00 68 1018.8
20260508094030 55 214 0.0 0.0 0.00 0.00 0.00 68 1018.8
20260508093930 55 274 0.0 0.0 0.00 0.00 0.00 68 1018.7
20260508093820 55 274 0.0 0.0 0.00 0.00 0.00 68 1018.9
20260508093714 55 274 0.0 0.0 0.00 0.00 0.00 68 1018.8
20260508093600 55 274 0.0 0.0 0.00 0.00 0.00 67 1018.8
20260508093449 55 274 0.0 0.0 0.00 0.00 0.00 67 1018.8
20260508093231 55 274 0.0 0.0 0.00 0.00 0.00 67 1018.8
20260508093119 55 274 0.0 0.0 0.00 0.00 0.00 67 1018.8
20260508093009 55 274 0.0 0.0 0.00 0.00 0.00 67 1018.8
20260508092902 55 274 0.0 0.0 0.00 0.00 0.00 67 1018.9
20260508092750 55 274 0.0 0.0 0.00 0.00 0.00 67 1018.8
20260508092643 55 274 0.0 0.0 0.00 0.00 0.00 67 1018.8
20260508092531 55 274 0.0 0.0 0.00 0.00 0.00 67 1018.8
20260508092429 55 274 0.0 0.0 0.00 0.00 0.00 67 1018.8
20260508092330 55 274 0.0 0.0 0.00 0.00 0.00 67 1018.8
20260508092222 55 274 0.0 0.0 0.00 0.00 0.00 66 1018.8
20260508092112 55 274 0.0 0.0 0.00 0.00 0.00 66 1018.8
20260508092004 55 274 0.0 0.0 0.00 0.00 0.00 66 1018.7
20260508091900 56 274 0.0 0.0 0.00 0.00 0.00 66 1018.7
20260508091749 56 274 0.0 0.0 0.00 0.00 0.00 65 1018.6
20260508091642 56 161 0.0 0.0 0.00 0.00 0.00 65 1018.8
20260508091529 56 161 0.0 0.0 0.00 0.00 0.00 65 1018.6
20260508091420 56 161 0.0 0.0 0.00 0.00 0.00 66 1018.6
20260508091312 56 161 0.0 0.0 0.00 0.00 0.00 66 1018.6
20260508091212 56 161 0.0 0.0 0.00 0.00 0.00 66 1018.6
20260508091112 56 161 0.0 0.0 0.00 0.00 0.00 66 1018.6
20260508091010 56 161 0.0 0.0 0.00 0.00 0.00 66 1018.6
20260508090906 56 161 0.0 0.0 0.00 0.00 0.00 66 1018.6
20260508090806 56 161 0.0 0.0 0.00 0.00 0.00 66 1018.6
20260508090656 56 161 0.0 0.0 0.00 0.00 0.00 66 1018.7
20260508090546 56 161 0.0 0.0 0.00 0.00 0.00 65 1018.6
20260508090435 56 161 0.0 0.0 0.00 0.00 0.00 65 1018.6
20260508090219 56 161 0.0 0.0 0.00 0.00 0.00 64 1018.6
20260508090119 56 161 0.0 0.0 0.00 0.00 0.00 64 1018.5
20260508090005 56 161 0.0 0.0 0.00 0.00 0.00 64 1018.5
20260508085859 56 161 0.0 0.0 0.00 0.00 0.00 64 1018.5
20260508085759 56 161 0.0 0.0 0.00 0.00 0.00 64 1018.6
20260508085655 56 161 0.0 0.0 0.00 0.00 0.00 64 1018.5
20260508085555 56 161 0.0 0.0 0.00 0.00 0.00 64 1018.4
20260508085448 56 161 0.0 0.0 0.00 0.00 0.00 64 1018.4
20260508085345 56 161 0.0 0.0 0.00 0.00 0.00 64 1018.5
20260508085244 56 161 0.0 0.0 0.00 0.00 0.00 64 1018.4
20260508085139 56 161 0.0 0.0 0.00 0.00 0.00 64 1018.4
20260508085030 56 161 0.0 1.0 0.00 0.00 0.00 64 1018.4
20260508084924 56 161 0.0 2.0 0.00 0.00 0.00 64 1018.5
20260508084708 57 161 0.0 2.0 0.00 0.00 0.00 64 1018.4
20260508084602 57 161 0.0 2.0 0.00 0.00 0.00 64 1018.5
20260508084447 57 161 0.0 2.0 0.00 0.00 0.00 64 1018.4
20260508084338 57 161 0.0 2.0 0.00 0.00 0.00 64 1018.5
20260508084235 57 161 0.0 2.0 0.00 0.00 0.00 64 1018.5
20260508084133 57 161 0.0 2.0 0.00 0.00 0.00 64 1018.4
20260508084035 57 161 0.0 2.0 0.00 0.00 0.00 64 1018.4
20260508083923 57 161 0.0 0.0 0.00 0.00 0.00 64 1018.3
20260508083818 57 161 0.0 0.0 0.00 0.00 0.00 64 1018.3
20260508083719 57 161 0.0 0.0 0.00 0.00 0.00 64 1018.2
20260508083617 57 161 0.0 0.0 0.00 0.00 0.00 64 1018.2
20260508083516 57 161 0.0 0.0 0.00 0.00 0.00 64 1018.3
20260508083414 57 161 0.0 0.0 0.00 0.00 0.00 64 1018.3
20260508083315 57 161 0.0 0.0 0.00 0.00 0.00 65 1018.2
20260508083215 58 161 0.0 0.0 0.00 0.00 0.00 65 1018.2
20260508083107 58 161 0.0 0.0 0.00 0.00 0.00 64 1018.2
20260508083003 58 161 0.0 0.0 0.00 0.00 0.00 64 1018.2
20260508082855 58 161 0.0 0.0 0.00 0.00 0.00 64 1018.2
20260508082744 58 161 0.0 0.0 0.00 0.00 0.00 64 1018.1
20260508082638 58 161 0.0 0.0 0.00 0.00 0.00 64 1018.1
20260508082537 58 161 0.0 0.0 0.00 0.00 0.00 64 1018.1
20260508082437 58 161 0.0 0.0 0.00 0.00 0.00 63 1018.1
20260508082335 58 161 0.0 0.0 0.00 0.00 0.00 63 1018.1
20260508082232 58 161 0.0 0.0 0.00 0.00 0.00 63 1018.1
20260508082133 58 161 0.0 0.0 0.00 0.00 0.00 63 1018.0
20260508082022 58 161 0.0 0.0 0.00 0.00 0.00 63 1017.9
20260508081917 58 161 0.0 0.0 0.00 0.00 0.00 63 1018.0
20260508081703 58 161 0.0 0.0 0.00 0.00 0.00 63 1018.0
20260508081553 59 161 0.0 0.0 0.00 0.00 0.00 63 1018.0
20260508081450 59 161 0.0 0.0 0.00 0.00 0.00 63 1017.9
20260508081337 59 161 0.0 0.0 0.00 0.00 0.00 63 1018.0
20260508081235 59 161 0.0 0.0 0.00 0.00 0.00 63 1018.0
20260508081133 59 161 0.0 0.0 0.00 0.00 0.00 63 1017.9
20260508081031 59 161 0.0 0.0 0.00 0.00 0.00 63 1018.0
20260508080925 59 161 0.0 0.0 0.00 0.00 0.00 62 1017.9
20260508080815 59 161 0.0 0.0 0.00 0.00 0.00 62 1017.9
20260508080713 59 161 0.0 0.0 0.00 0.00 0.00 62 1017.9
20260508080611 59 161 0.0 0.0 0.00 0.00 0.00 62 1017.7
20260508080503 59 161 0.0 0.0 0.00 0.00 0.00 62 1017.7
20260508080358 60 161 0.0 0.0 0.00 0.00 0.00 62 1017.7
20260508080139 60 161 0.0 0.0 0.00 0.00 0.00 62 1017.8
20260508080041 60 161 0.0 0.0 0.00 0.00 0.00 62 1017.6
20260508075939 60 161 0.0 0.0 0.00 0.00 0.00 61 1017.7
20260508075840 60 161 0.0 0.0 0.00 0.00 0.00 59 1017.6
20260508075439 60 161 0.0 0.0 0.00 0.00 0.00 59 1017.7
20260508075331 60 161 0.0 0.0 0.00 0.00 0.00 59 1017.7
20260508075232 60 161 0.0 0.0 0.00 0.00 0.00 59 1017.6
20260508075133 60 161 0.0 0.0 0.00 0.00 0.00 59 1017.7
20260508075031 60 161 0.0 0.0 0.00 0.00 0.00 59 1017.7
20260508074929 61 161 0.0 0.0 0.00 0.00 0.00 59 1017.7
20260508074819 61 161 0.0 0.0 0.00 0.00 0.00 58 1017.6
20260508074714 61 161 0.0 0.0 0.00 0.00 0.00 58 1017.7
20260508074601 61 161 0.0 0.0 0.00 0.00 0.00 58 1017.6
20260508074451 61 161 0.0 0.0 0.00 0.00 0.00 58 1017.7
20260508074343 61 161 0.0 0.0 0.00 0.00 0.00 58 1017.7
20260508074241 61 161 0.0 0.0 0.00 0.00 0.00 57 1017.7
20260508074139 61 161 0.0 0.0 0.00 0.00 0.00 57 1017.8
20260508074037 61 161 0.0 0.0 0.00 0.00 0.00 57 1017.8
20260508073929 62 161 0.0 2.0 0.00 0.00 0.00 57 1017.7
20260508073830 62 161 0.0 2.0 0.00 0.00 0.00 57 1017.6
20260508073729 62 161 0.0 2.0 0.00 0.00 0.00 56 1017.7
20260508073626 62 161 0.0 2.0 0.00 0.00 0.00 56 1017.7
20260508073527 62 161 0.0 2.0 0.00 0.00 0.00 56 1017.7
20260508073416 62 161 0.0 2.0 0.00 0.00 0.00 55 1017.5
20260508073307 62 161 0.0 2.0 0.00 0.00 0.00 55 1017.6
20260508073202 62 161 0.0 2.0 0.00 0.00 0.00 55 1017.5
20260508073101 62 161 0.0 2.0 0.00 0.00 0.00 55 1017.5
20260508073001 63 161 0.0 1.0 0.00 0.00 0.00 55 1017.6
20260508072853 63 161 0.0 0.0 0.00 0.00 0.00 54 1017.6
20260508072756 63 161 0.0 0.0 0.00 0.00 0.00 54 1017.6
20260508072656 63 161 0.0 0.0 0.00 0.00 0.00 54 1017.5
20260508072548 63 161 0.0 0.0 0.00 0.00 0.00 54 1017.5
20260508072446 63 161 0.0 0.0 0.00 0.00 0.00 55 1017.4
20260508072344 63 161 0.0 0.0 0.00 0.00 0.00 54 1017.4
20260508072233 63 161 0.0 0.0 0.00 0.00 0.00 53 1017.5
20260508072108 64 161 0.0 0.0 0.00 0.00 0.00 53 1017.5
20260508072008 64 161 0.0 0.0 0.00 0.00 0.00 52 1017.4
20260508071902 64 161 0.0 0.0 0.00 0.00 0.00 52 1017.4
20260508071802 64 161 0.0 0.0 0.00 0.00 0.00 52 1017.4
20260508071655 64 161 0.0 0.0 0.00 0.00 0.00 52 1017.3
20260508071549 64 161 0.0 1.0 0.00 0.00 0.00 53 1017.3
20260508071445 64 161 0.0 1.0 0.00 0.00 0.00 53 1017.3
20260508071346 65 161 0.0 1.0 0.00 0.00 0.00 52 1017.2
20260508071236 65 161 0.0 1.0 0.00 0.00 0.00 52 1017.3
20260508071134 65 161 0.0 1.0 0.00 0.00 0.00 51 1017.2
20260508071030 65 161 0.0 1.0 0.00 0.00 0.00 51 1017.2
20260508070934 65 161 0.0 1.0 0.00 0.00 0.00 51 1017.2
20260508070819 65 161 0.0 1.0 0.00 0.00 0.00 51 1017.1
20260508070715 65 161 0.0 1.0 0.00 0.00 0.00 51 1017.1
20260508070613 65 161 0.0 1.0 0.00 0.00 0.00 51 1017.2
20260508070514 65 161 0.0 1.0 0.00 0.00 0.00 51 1017.1
20260508070411 65 161 0.0 2.0 0.00 0.00 0.00 51 1017.1
20260508070312 65 161 1.0 2.0 0.00 0.00 0.00 51 1017.1
20260508070200 66 161 1.0 2.0 0.00 0.00 0.00 50 1017.1
20260508070108 66 161 1.0 2.0 0.00 0.00 0.00 50 1017.0
20260508065949 66 161 1.0 2.0 0.00 0.00 0.00 50 1017.0
20260508065847 66 161 1.0 2.0 0.00 0.00 0.00 49 1017.0
20260508065745 66 161 1.0 2.0 0.00 0.00 0.00 48 1017.2
20260508065634 66 161 1.0 2.0 0.00 0.00 0.00 48 1017.1
20260508065528 66 161 1.0 2.0 0.00 0.00 0.00 49 1017.1
20260508065415 66 161 1.0 2.0 0.00 0.00 0.00 49 1017.2
20260508065307 66 161 1.0 2.0 0.00 0.00 0.00 49 1017.2
20260508065209 66 161 1.0 2.0 0.00 0.00 0.00 50 1017.1
20260508065109 66 161 1.0 2.0 0.00 0.00 0.00 51 1017.1
20260508065007 67 161 0.0 2.0 0.00 0.00 0.00 52 1017.1
20260508064905 67 161 0.0 1.0 0.00 0.00 0.00 52 1017.1
20260508064755 67 256 0.0 0.0 0.00 0.00 0.00 53 1017.1
20260508064646 67 256 0.0 0.0 0.00 0.00 0.00 53 1017.1
20260508064539 67 256 0.0 0.0 0.00 0.00 0.00 53 1017.0
20260508064425 67 256 0.0 0.0 0.00 0.00 0.00 53 1017.1
20260508064314 66 256 0.0 0.0 0.00 0.00 0.00 53 1017.0
20260508064213 66 256 0.0 0.0 0.00 0.00 0.00 53 1017.0
20260508064110 66 256 0.0 0.0 0.00 0.00 0.00 53 1017.0
20260508064014 66 256 0.0 0.0 0.00 0.00 0.00 53 1017.0
20260508063857 66 256 0.0 0.0 0.00 0.00 0.00 54 1017.0
20260508063757 66 256 0.0 0.0 0.00 0.00 0.00 55 1016.9
20260508063649 66 256 0.0 0.0 0.00 0.00 0.00 53 1017.0
20260508063537 67 256 0.0 0.0 0.00 0.00 0.00 53 1016.9
20260508063433 67 256 0.0 0.0 0.00 0.00 0.00 53 1016.9
20260508063334 67 256 0.0 1.0 0.00 0.00 0.00 52 1016.8
20260508063240 67 256 0.0 1.0 0.00 0.00 0.00 49 1016.9
20260508063115 68 256 0.0 1.0 0.00 0.00 0.00 49 1016.7
20260508063011 68 256 0.0 1.0 0.00 0.00 0.00 48 1016.7
20260508062855 68 256 0.0 1.0 0.00 0.00 0.00 46 1016.7
20260508062744 68 256 0.0 1.0 0.00 0.00 0.00 44 1016.7
20260508062634 68 256 0.0 2.0 0.00 0.00 0.00 42 1016.7
20260508062525 68 256 0.0 2.0 0.00 0.00 0.00 40 1016.8
20260508062415 68 256 0.0 2.0 0.00 0.00 0.00 49 1016.8
20260508062306 68 256 0.0 2.0 0.00 0.00 0.00 48 1016.7
20260508062155 69 256 0.0 2.0 0.00 0.00 0.00 47 1016.7
20260508062045 69 256 0.0 2.0 0.00 0.00 0.00 45 1016.7
20260508061939 69 256 0.0 2.0 0.00 0.00 0.00 42 1016.6
20260508061832 69 256 0.0 2.0 0.00 0.00 0.00 44 1016.6
20260508061733 69 256 0.0 2.0 0.00 0.00 0.00 39 1016.7
20260508061623 69 256 0.0 2.0 0.00 0.00 0.00 39 1016.7
20260508061513 69 256 0.0 2.0 0.00 0.00 0.00 43 1016.7
20260508061403 69 256 0.0 2.0 0.00 0.00 0.00 43 1016.7
20260508061252 69 256 0.0 2.0 0.00 0.00 0.00 38 1016.7
20260508061142 70 258 0.0 2.0 0.00 0.00 0.00 47 1016.7
20260508061040 70 258 0.0 2.0 0.00 0.00 0.00 36 1016.6
20260508060940 70 258 0.0 2.0 0.00 0.00 0.00 39 1016.6
20260508060836 70 258 0.0 2.0 0.00 0.00 0.00 38 1016.7
20260508060727 70 267 0.0 2.0 0.00 0.00 0.00 32 1016.7
20260508060617 70 321 0.0 0.0 0.00 0.00 0.00 38 1016.7
20260508060507 70 321 0.0 0.0 0.00 0.00 0.00 40 1016.7
20260508060404 70 321 0.0 0.0 0.00 0.00 0.00 41 1016.7
20260508060331 70 321 0.0 0.0 0.00 0.00 0.00 38 1016.7
20260508060300 70 321 0.0 0.0 0.00 0.00 0.00 38 1016.8
20260508060044 70 321 0.0 0.0 0.00 0.00 0.00 39 1016.7
20260508055936 70 321 0.0 0.0 0.00 0.00 0.00 40 1016.7
20260508055826 71 321 0.0 0.0 0.00 0.00 0.00 37 1016.8
20260508055715 70 321 0.0 0.0 0.00 0.00 0.00 36 1016.8
20260508055605 70 321 0.0 0.0 0.00 0.00 0.00 38 1016.7
20260508055455 70 321 0.0 0.0 0.00 0.00 0.00 39 1016.7
20260508055348 70 321 0.0 1.0 0.00 0.00 0.00 39 1016.7
20260508055242 70 321 0.0 1.0 0.00 0.00 0.00 36 1016.6
20260508055139 70 321 0.0 1.0 0.00 0.00 0.00 35 1016.7
20260508055041 70 321 0.0 1.0 0.00 0.00 0.00 37 1016.7
20260508054936 70 321 0.0 1.0 0.00 0.00 0.00 38 1016.8
20260508054833 71 321 0.0 1.0 0.00 0.00 0.00 35 1016.8
20260508054757 71 321 0.0 2.0 0.00 0.00 0.00 34 1016.7
20260508054628 71 321 0.0 2.0 0.00 0.00 0.00 34 1016.7
20260508054527 71 321 0.0 2.0 0.00 0.00 0.00 33 1016.8
20260508054417 71 321 0.0 2.0 0.00 0.00 0.00 33 1016.9
20260508054316 71 321 0.0 2.0 0.00 0.00 0.00 31 1016.9
20260508054211 71 321 0.0 2.0 0.00 0.00 0.00 32 1016.8
20260508054001 71 321 0.0 2.0 0.00 0.00 0.00 31 1016.8
20260508053850 72 321 0.0 2.0 0.00 0.00 0.00 34 1016.9
20260508053744 71 321 0.0 1.0 0.00 0.00 0.00 35 1016.8
20260508053631 71 321 0.0 1.0 0.00 0.00 0.00 35 1016.9
20260508053520 71 321 0.0 1.0 0.00 0.00 0.00 31 1016.9
20260508053419 71 321 0.0 1.0 0.00 0.00 0.00 31 1016.9
20260508053315 71 321 0.0 2.0 0.00 0.00 0.00 33 1016.8
20260508053220 71 321 0.0 2.0 0.00 0.00 0.00 32 1016.9
20260508053113 71 321 0.0 2.0 0.00 0.00 0.00 34 1016.9
20260508053014 71 321 0.0 2.0 0.00 0.00 0.00 32 1016.9
20260508052905 71 321 0.0 2.0 0.00 0.00 0.00 32 1017.0
20260508052753 71 321 0.0 2.0 0.00 0.00 0.00 34 1017.0
20260508052648 71 321 1.0 2.0 0.00 0.00 0.00 31 1017.0
20260508052533 72 71 1.0 3.0 0.00 0.00 0.00 34 1016.9
20260508052423 72 71 1.0 4.0 0.00 0.00 0.00 32 1017.0
20260508052312 72 271 1.0 4.0 0.00 0.00 0.00 31 1017.0
20260508052203 73 271 1.0 4.0 0.00 0.00 0.00 33 1016.9
20260508052054 73 271 1.0 4.0 0.00 0.00 0.00 31 1016.9
20260508051942 73 271 1.0 4.0 0.00 0.00 0.00 32 1017.0
20260508051835 73 271 1.0 4.0 0.00 0.00 0.00 33 1017.0
20260508051725 73 271 1.0 4.0 0.00 0.00 0.00 29 1017.0
20260508051623 73 253 1.0 4.0 0.00 0.00 0.00 30 1017.0
20260508051522 73 254 1.0 3.0 0.00 0.00 0.00 29 1017.1
20260508051410 73 305 1.0 3.0 0.00 0.00 0.00 29 1017.0
20260508051302 73 305 1.0 3.0 0.00 0.00 0.00 29 1017.1
20260508051152 74 236 1.0 3.0 0.00 0.00 0.00 32 1017.1
20260508051044 74 195 1.0 3.0 0.00 0.00 0.00 29 1017.1
20260508050931 73 195 1.0 3.0 0.00 0.00 0.00 29 1017.0
20260508050829 73 282 1.0 3.0 0.00 0.00 0.00 28 1017.1
20260508050711 73 257 1.0 3.0 0.00 0.00 0.00 31 1017.2
20260508050601 72 273 1.0 3.0 0.00 0.00 0.00 31 1017.2
20260508050451 73 273 1.0 3.0 0.00 0.00 0.00 29 1017.1
20260508050341 72 263 1.0 3.0 0.00 0.00 0.00 28 1017.1
20260508050231 73 263 1.0 3.0 0.00 0.00 0.00 27 1017.2
20260508050121 73 263 2.0 6.0 0.00 0.00 0.00 27 1017.2
20260508050018 73 263 2.0 6.0 0.00 0.00 0.00 30 1017.2
20260508045918 73 263 2.0 6.0 0.00 0.00 0.00 28 1017.3
20260508045809 73 263 2.0 6.0 0.00 0.00 0.00 26 1017.3
20260508045659 73 220 2.0 6.0 0.00 0.00 0.00 26 1017.2
20260508045549 73 283 2.0 6.0 0.00 0.00 0.00 26 1017.3
20260508045441 74 271 2.0 6.0 0.00 0.00 0.00 28 1017.3
20260508045329 74 264 2.0 6.0 0.00 0.00 0.00 27 1017.3
20260508045219 74 272 2.0 6.0 0.00 0.00 0.00 28 1017.3
20260508045109 74 240 2.0 6.0 0.00 0.00 0.00 29 1017.2
20260508044959 74 298 2.0 6.0 0.00 0.00 0.00 26 1017.2
20260508044849 74 263 1.0 4.0 0.00 0.00 0.00 26 1017.3
20260508044804 75 194 1.0 4.0 0.00 0.00 0.00 26 1017.2
20260508044740 74 252 1.0 4.0 0.00 0.00 0.00 28 1017.2
20260508044520 74 261 1.0 4.0 0.00 0.00 0.00 30 1017.2
20260508044418 74 261 1.0 4.0 0.00 0.00 0.00 30 1017.2
20260508044317 74 300 1.0 3.0 0.00 0.00 0.00 30 1017.1
20260508044207 73 287 1.0 7.0 0.00 0.00 0.00 28 1017.1
20260508044058 73 295 2.0 7.0 0.00 0.00 0.00 31 1017.1
20260508043947 73 323 2.0 7.0 0.00 0.00 0.00 29 1017.1
20260508043841 73 323 2.0 7.0 0.00 0.00 0.00 28 1017.1
20260508043735 73 323 2.0 7.0 0.00 0.00 0.00 30 1017.0
20260508043623 73 315 2.0 7.0 0.00 0.00 0.00 27 1017.0
20260508043507 74 317 2.0 7.0 0.00 0.00 0.00 29 1016.9
20260508043357 74 269 2.0 7.0 0.00 0.00 0.00 26 1017.0
20260508043247 74 298 2.0 6.0 0.00 0.00 0.00 29 1016.9
20260508043137 74 259 2.0 6.0 0.00 0.00 0.00 26 1016.9
20260508043028 74 255 2.0 5.0 0.00 0.00 0.00 27 1017.1
20260508042918 74 283 2.0 5.0 0.00 0.00 0.00 25 1016.9
20260508042816 74 209 2.0 5.0 0.00 0.00 0.00 28 1016.9
20260508042717 74 268 2.0 6.0 0.00 0.00 0.00 26 1017.0
20260508042607 74 288 2.0 6.0 0.00 0.00 0.00 27 1017.0
20260508042455 75 298 2.0 6.0 0.00 0.00 0.00 27 1017.1
20260508042347 75 257 2.0 6.0 0.00 0.00 0.00 30 1017.1
20260508042235 75 201 2.0 6.0 0.00 0.00 0.00 29 1017.0
20260508042125 74 269 2.0 6.0 0.00 0.00 0.00 26 1017.1
20260508042015 74 247 2.0 6.0 0.00 0.00 0.00 27 1017.2
20260508041906 74 280 2.0 6.0 0.00 0.00 0.00 29 1017.2
20260508041803 74 274 2.0 6.0 0.00 0.00 0.00 27 1017.2
20260508041658 74 339 1.0 4.0 0.00 0.00 0.00 27 1017.0
20260508041450 74 306 1.0 4.0 0.00 0.00 0.00 25 1017.1
20260508041340 74 255 1.0 4.0 0.00 0.00 0.00 30 1017.1
20260508041240 74 279 1.0 4.0 0.00 0.00 0.00 25 1017.1
20260508041139 74 297 1.0 4.0 0.00 0.00 0.00 29 1017.1
20260508041028 74 301 1.0 4.0 0.00 0.00 0.00 27 1017.1
20260508040919 73 309 1.0 4.0 0.00 0.00 0.00 28 1017.1
20260508040809 73 309 1.0 4.0 0.00 0.00 0.00 33 1017.0
20260508040700 73 335 1.0 4.0 0.00 0.00 0.00 25 1017.1
20260508040554 73 327 1.0 4.0 0.00 0.00 0.00 28 1017.1
20260508040444 73 327 1.0 4.0 0.00 0.00 0.00 25 1017.2
20260508040336 74 337 1.0 4.0 0.00 0.00 0.00 28 1017.2
20260508040231 74 315 1.0 3.0 0.00 0.00 0.00 29 1017.1
20260508040117 73 13 1.0 3.0 0.00 0.00 0.00 30 1017.2
20260508040009 73 43 1.0 4.0 0.00 0.00 0.00 25 1017.2
20260508035907 73 281 1.0 4.0 0.00 0.00 0.00 27 1017.2
20260508035804 73 281 1.0 4.0 0.00 0.00 0.00 26 1017.1
20260508035708 73 317 1.0 4.0 0.00 0.00 0.00 27 1017.1
20260508035605 73 340 1.0 4.0 0.00 0.00 0.00 28 1017.2
20260508035441 73 74 1.0 4.0 0.00 0.00 0.00 30 1017.3
20260508035331 73 69 1.0 4.0 0.00 0.00 0.00 25 1017.3
20260508035225 73 300 1.0 4.0 0.00 0.00 0.00 23 1017.3
20260508035114 73 314 2.0 4.0 0.00 0.00 0.00 29 1017.2
20260508035005 73 340 2.0 6.0 0.00 0.00 0.00 25 1017.3
20260508034856 74 5 2.0 6.0 0.00 0.00 0.00 27 1017.3
20260508034754 74 248 2.0 6.0 0.00 0.00 0.00 25 1017.4
20260508034647 74 248 2.0 6.0 0.00 0.00 0.00 30 1017.3
20260508034433 74 267 2.0 6.0 0.00 0.00 0.00 28 1017.2
20260508034333 74 267 2.0 6.0 0.00 0.00 0.00 25 1017.3
20260508034226 74 184 2.0 6.0 0.00 0.00 0.00 26 1017.3
20260508034128 74 254 3.0 6.0 0.00 0.00 0.00 28 1017.3
20260508034019 74 271 3.0 6.0 0.00 0.00 0.00 25 1017.3
20260508033915 74 302 3.0 7.0 0.00 0.00 0.00 29 1017.3
20260508033816 74 192 3.0 7.0 0.00 0.00 0.00 28 1017.4
20260508033713 73 271 3.0 8.0 0.00 0.00 0.00 29 1017.4
20260508033609 73 271 3.0 8.0 0.00 0.00 0.00 28 1017.4
20260508033509 73 267 3.0 8.0 0.00 0.00 0.00 27 1017.4
20260508033359 73 184 3.0 8.0 0.00 0.00 0.00 23 1017.5
20260508033251 73 150 3.0 8.0 0.00 0.00 0.00 27 1017.6
20260508033149 73 258 2.0 8.0 0.00 0.00 0.00 22 1017.5
20260508032927 74 252 2.0 8.0 0.00 0.00 0.00 26 1017.4
20260508032820 73 215 1.0 8.0 0.00 0.00 0.00 24 1017.4
20260508032713 73 254 1.0 8.0 0.00 0.00 0.00 26 1017.4
20260508032613 73 17 1.0 8.0 0.00 0.00 0.00 24 1017.4
20260508032514 73 256 2.0 8.0 0.00 0.00 0.00 24 1017.4
20260508032400 73 256 2.0 8.0 0.00 0.00 0.00 26 1017.4
20260508032251 73 206 2.0 8.0 0.00 0.00 0.00 28 1017.4
20260508032148 73 206 2.0 8.0 0.00 0.00 0.00 26 1017.5
20260508032044 73 206 2.0 8.0 0.00 0.00 0.00 22 1017.5
20260508031942 73 279 2.0 6.0 0.00 0.00 0.00 25 1017.4
20260508031840 74 284 2.0 4.0 0.00 0.00 0.00 28 1017.5
20260508031731 73 245 2.0 4.0 0.00 0.00 0.00 26 1017.6
20260508031631 74 227 2.0 4.0 0.00 0.00 0.00 27 1017.6
20260508031526 74 241 2.0 7.0 0.00 0.00 0.00 26 1017.6
20260508031425 73 251 2.0 7.0 0.00 0.00 0.00 25 1017.7
20260508031320 74 281 2.0 7.0 0.00 0.00 0.00 23 1017.6
20260508031217 74 281 2.0 8.0 0.00 0.00 0.00 30 1017.6
20260508031118 74 265 2.0 8.0 0.00 0.00 0.00 28 1017.7
20260508031011 74 216 2.0 8.0 0.00 0.00 0.00 25 1017.7
20260508030909 74 232 2.0 8.0 0.00 0.00 0.00 28 1017.7
20260508030808 74 298 2.0 8.0 0.00 0.00 0.00 27 1017.7
20260508030705 74 267 2.0 8.0 0.00 0.00 0.00 25 1017.8
20260508030610 74 246 2.0 8.0 0.00 0.00 0.00 28 1017.8
20260508030505 73 265 2.0 8.0 0.00 0.00 0.00 28 1017.8
20260508030404 73 249 2.0 8.0 0.00 0.00 0.00 31 1017.8
20260508030304 72 323 2.0 8.0 0.00 0.00 0.00 24 1017.8
20260508030159 72 285 2.0 8.0 0.00 0.00 0.00 26 1017.9
20260508030105 72 330 1.0 8.0 0.00 0.00 0.00 25 1017.9
20260508025944 73 85 2.0 8.0 0.00 0.00 0.00 27 1017.9
20260508025842 73 85 2.0 8.0 0.00 0.00 0.00 27 1017.8
20260508025740 73 166 2.0 8.0 0.00 0.00 0.00 27 1017.9
20260508025642 73 153 2.0 8.0 0.00 0.00 0.00 26 1017.9
20260508025546 74 209 1.0 8.0 0.00 0.00 0.00 29 1017.9
20260508025435 73 240 1.0 8.0 0.00 0.00 0.00 28 1017.8
20260508025335 73 301 2.0 8.0 0.00 0.00 0.00 24 1017.8
20260508025235 73 250 1.0 8.0 0.00 0.00 0.00 30 1017.8
20260508025135 72 274 1.0 5.0 0.00 0.00 0.00 26 1017.8
20260508025032 72 274 2.0 5.0 0.00 0.00 0.00 28 1017.8
20260508024928 72 232 2.0 5.0 0.00 0.00 0.00 24 1017.8
20260508024829 72 137 2.0 5.0 0.00 0.00 0.00 27 1017.9
20260508024718 72 96 2.0 5.0 0.00 0.00 0.00 23 1017.9
20260508024609 72 254 2.0 5.0 0.00 0.00 0.00 28 1017.7
20260508024513 72 233 2.0 5.0 0.00 0.00 0.00 30 1017.7
20260508024402 71 236 2.0 5.0 0.00 0.00 0.00 26 1017.8
20260508024303 71 290 2.0 5.0 0.00 0.00 0.00 28 1017.9
20260508024201 71 300 2.0 5.0 0.00 0.00 0.00 22 1017.9
20260508024101 72 294 2.0 5.0 0.00 0.00 0.00 24 1018.0
20260508023958 72 271 2.0 5.0 0.00 0.00 0.00 22 1018.0
20260508023854 72 120 2.0 5.0 0.00 0.00 0.00 27 1018.2
20260508023754 71 267 3.0 7.0 0.00 0.00 0.00 23 1018.1
20260508023648 72 254 3.0 8.0 0.00 0.00 0.00 24 1018.2
20260508023541 72 257 3.0 8.0 0.00 0.00 0.00 27 1018.2
20260508023433 72 154 3.0 8.0 0.00 0.00 0.00 23 1018.2
20260508023323 72 185 3.0 8.0 0.00 0.00 0.00 23 1018.2
20260508023104 72 102 3.0 8.0 0.00 0.00 0.00 25 1018.1
20260508023011 72 179 3.0 8.0 0.00 0.00 0.00 26 1018.1
20260508022904 72 234 3.0 8.0 0.00 0.00 0.00 25 1018.1
20260508022804 72 269 3.0 8.0 0.00 0.00 0.00 25 1018.2
20260508022706 72 232 3.0 7.0 0.00 0.00 0.00 27 1018.2
20260508022558 72 290 3.0 7.0 0.00 0.00 0.00 27 1018.2
20260508022452 72 236 3.0 7.0 0.00 0.00 0.00 23 1018.3
20260508022342 71 243 3.0 7.0 0.00 0.00 0.00 29 1018.3
20260508022243 71 240 3.0 7.0 0.00 0.00 0.00 25 1018.3
20260508022141 71 252 3.0 7.0 0.00 0.00 0.00 23 1018.5
20260508022038 71 293 4.0 11.0 0.00 0.00 0.00 29 1018.5
20260508021938 71 236 4.0 11.0 0.00 0.00 0.00 28 1018.5
20260508021832 71 304 4.0 11.0 0.00 0.00 0.00 25 1018.6
20260508021732 71 265 4.0 11.0 0.00 0.00 0.00 24 1018.6
20260508021634 71 281 4.0 11.0 0.00 0.00 0.00 28 1018.7
20260508021530 71 252 3.0 11.0 0.00 0.00 0.00 29 1018.6
20260508021432 71 219 3.0 11.0 0.00 0.00 0.00 24 1018.6
20260508021328 71 257 2.0 11.0 0.00 0.00 0.00 25 1018.6
20260508021224 71 248 2.0 11.0 0.00 0.00 0.00 26 1018.6
20260508021120 71 175 2.0 11.0 0.00 0.00 0.00 23 1018.7
20260508021020 71 170 2.0 7.0 0.00 0.00 0.00 27 1018.8
20260508020911 71 240 1.0 7.0 0.00 0.00 0.00 31 1018.6
20260508020740 70 239 1.0 5.0 0.00 0.00 0.00 31 1018.9
20260508020642 70 247 1.0 4.0 0.00 0.00 0.00 27 1018.8
20260508020532 69 82 1.0 4.0 0.00 0.00 0.00 27 1018.8
20260508020422 69 82 2.0 4.0 0.00 0.00 0.00 27 1018.8
20260508020312 69 237 2.0 7.0 0.00 0.00 0.00 28 1018.8
20260508020209 69 227 2.0 7.0 0.00 0.00 0.00 26 1018.8
20260508020109 69 227 3.0 8.0 0.00 0.00 0.00 25 1018.8
20260508020007 69 236 3.0 8.0 0.00 0.00 0.00 29 1018.9
20260508015900 69 52 3.0 8.0 0.00 0.00 0.00 25 1018.9
20260508015802 69 307 3.0 8.0 0.00 0.00 0.00 26 1018.9
20260508015700 69 294 3.0 8.0 0.00 0.00 0.00 28 1019.0
20260508015600 70 278 3.0 8.0 0.00 0.00 0.00 25 1019.0
20260508015456 70 265 3.0 8.0 0.00 0.00 0.00 26 1019.1
20260508015355 71 266 3.0 8.0 0.00 0.00 0.00 25 1019.0
20260508015255 71 277 3.0 8.0 0.00 0.00 0.00 26 1018.9
20260508015150 71 259 2.0 8.0 0.00 0.00 0.00 29 1019.0
20260508015051 71 248 2.0 8.0 0.00 0.00 0.00 27 1019.0
20260508014951 70 219 2.0 8.0 0.00 0.00 0.00 26 1019.0
20260508014842 70 217 2.0 6.0 0.00 0.00 0.00 29 1019.1
20260508014744 69 88 2.0 6.0 0.00 0.00 0.00 27 1019.0
20260508014634 69 281 1.0 6.0 0.00 0.00 0.00 28 1019.0
20260508014526 69 281 1.0 6.0 0.00 0.00 0.00 27 1019.1
20260508014420 69 275 1.0 6.0 0.00 0.00 0.00 26 1019.1
20260508014305 69 258 1.0 6.0 0.00 0.00 0.00 27 1019.1
20260508014154 69 271 1.0 5.0 0.00 0.00 0.00 30 1019.0
20260508014044 69 66 1.0 10.0 0.00 0.00 0.00 29 1019.1
20260508013934 69 32 2.0 10.0 0.00 0.00 0.00 26 1019.1
20260508013826 69 327 2.0 10.0 0.00 0.00 0.00 27 1019.1
20260508013715 69 284 2.0 10.0 0.00 0.00 0.00 27 1019.2
20260508013611 69 284 2.0 10.0 0.00 0.00 0.00 31 1019.2